                ,  0.194,  0.291,  0.388,  0.485,  0.582,  0.679,  0.776,  0.873,  0.970,  1.067,  1.164,  1.261,  1.358,  1.455,  1.552,  1.650,  1.747,  1.844,  1.941,  2.038,  2.135,  2.232,  2.329,  2.426,  2.523,  2.620,  2.717,  2.814,  2.911,  3.008,  3.105,  3.202,  3.299,  3.396,  3.493,  3.590,  3.687,  3.784,  3.881,  3.978,  4.075,  4.172,  4.269,  4.366,  4.463,  4.560,  4.657,  4.754,  4.851,  4.949,  5.046,  5.143,  5.240,  5.337,  5.434,  5.531,  5.628,  5.725,  5.822,  5.919,  6.016,  6.113,  6.210,  6.307,  6.404,  6.501,  6.598,  6.695,  6.792,  6.889,  6.986,  7.083,  7.180,  7.277,  7.374,  7.471,  7.568,  7.665,  7.762
2007/10/17 00:00,  999.0,    0.1,  999.0,    0.0,  999.0,  999.0,  999.0,   -0.5,  999.0,  999.0,  999.0,    0.8,    1.3,    2.4,    3.4,    3.8,    3.7,    3.3,    3.1,    2.5,  999.0,    2.2,    2.7,    2.9,    2.5,    1.9,    1.6,  999.0,    1.4,  999.0,    0.2,    0.8,    0.4,    0.9,    1.6,    1.8,  999.0,    1.6,  999.0,  999.0,  999.0,  999.0,  999.0,  999.0,   -0.5,  999.0,  999.0,  999.0,  999.0,  999.0,  999.0,  999.0,  999.0,   -1.7,  999.0,  999.0,  999.0,  999.0,  999.0,  999.0,  999.0,  999.0,  999.0,  999.0,  999.0,  999.0,  999.0,  999.0,  999.0,  999.0,  999.0,  999.0,  999.0,  999.0,  999.0,  999.0,  999.0,  999.0,  999.0
2007/10/17 00:10,  999.0,  999.0,  999.0,   -0.2,  999.0,   -0.3,  999.0,   -1.0,   -1.2,   -1.5,   -0.7,   -0.9,    0.7,    1.9,    2.6,    3.3,    3.1,    3.0,    2.4,    2.1,  999.0,    1.9,    2.7,    2.5,    3.0,  999.0,    2.2,    1.6,  999.0,  999.0,  999.0,    1.6,    1.3,    2.1,    2.6,  999.0,    2.4,    1.9,    1.0,    0.5,  999.0,    1.1,  999.0,  999.0,  999.0,   -0.3,  999.0,  999.0,  999.0,  999.0,  999.0,  999.0,  999.0,   -1.7,   -2.9,  999.0,  999.0,  999.0,  999.0,  999.0,  999.0,  999.0,  999.0,  999.0,  999.0,  999.0,  999.0,  999.0,  999.0,  999.0,  999.0,  999.0,  999.0,  999.0,  999.0,  999.0,  999.0,  999.0,  999.0
2007/10/17 00:20,  999.0,   -1.1,  999.0,   -0.3,   -0.3,   -0.3,   -0.4,   -1.2,   -1.7,   -1.9,   -1.3,   -1.5,    0.4,    1.6,    2.4,    3.0,    2.9,    2.7,  999.0,    2.0,  999.0,  999.0,    2.6,  999.0,    2.4,    2.0,  999.0,    0.6,    0.9,    1.5,  999.0,  999.0,    1.8,    2.1,    2.9,  999.0,    3.5,    3.1,    2.5,  999.0,  999.0,    0.9,    0.9,  999.0,  999.0,  999.0,   -1.6,  999.0,  999.0,  999.0,  999.0,  999.0,   -2.1,   -2.8,  999.0,  999.0,  999.0,  999.0,  999.0,  999.0,  999.0,  999.0,  999.0,  999.0,  999.0,  999.0,  999.0,  999.0,  999.0,  999.0,  999.0,  999.0,  999.0,  999.0,  999.0,  999.0,  999.0,  999.0,  999.0
2007/10/17 00:30,  999.0,   -0.9,   -0.4,   -0.8,   -0.8,   -0.6,  999.0,  999.0,   -1.4,   -1.8,   -1.3,   -1.4,    0.0,    1.9,    2.3,    2.9,    2.8,    2.6,    2.4,    1.7,  999.0,    1.5,    1.6,    2.1,    1.4,    1.6,  999.0,    1.3,    1.5,    2.3,  999.0,    0.6,    1.0,    1.9,    3.2,  999.0,    4.2,    3.4,    2.4,    2.0,    1.3,  999.0,    1.2,    0.9,  999.0,  999.0,  999.0,  999.0,  999.0,  999.0,  999.0,  999.0,  999.0,  999.0,  999.0,  999.0,  999.0,  999.0,  999.0,  999.0,  999.0,  999.0,  999.0,  999.0,  999.0,  999.0,  999.0,  999.0,  999.0,  999.0,  999.0,  999.0,  999.0,  999.0,  999.0,  999.0,  999.0,  999.0,  999.0
2007/10/17 00:40,   -0.3,   -1.5,   -0.4,   -0.7,   -1.9,   -1.0,  999.0,   -1.7,   -1.6,   -1.9,   -1.7,   -1.6,    0.1,    1.5,    2.2,    2.7,    2.6,    2.7,    2.5,    2.4,    2.2,    1.8,    2.1,    2.4,  999.0,    2.1,  999.0,  999.0,    1.2,  999.0,    2.7,  999.0,    1.4,    1.7,    2.8,    3.5,    3.8,    2.5,    1.9,    1.4,    1.2,    1.3,    1.8,  999.0,  999.0,  999.0,  999.0,  999.0,  999.0,  999.0,  999.0,  999.0,  999.0,  999.0,  999.0,  999.0,  999.0,  999.0,  999.0,  999.0,  999.0,  999.0,  999.0,  999.0,  999.0,  999.0,  999.0,  999.0,  999.0,  999.0,  999.0,  999.0,  999.0,  999.0,  999.0,  999.0,  999.0,  999.0,  999.0
2007/10/17 00:50,   -0.3,   -1.1,   -0.1,   -1.0,   -1.9,   -1.3,   -1.9,   -2.5,   -2.4,   -2.5,   -2.1,   -1.9,    0.9,    1.7,    2.5,    2.6,    2.7,    2.9,    2.7,    1.9,    1.2,    1.7,    2.2,    2.4,    1.9,    2.0,    1.7,    0.4,    1.3,    1.5,  999.0,  999.0,    1.0,    1.4,    2.4,    3.1,    3.0,    1.8,    1.8,    1.2,    1.4,    1.6,    1.6,  999.0,  999.0,  999.0,  999.0,  999.0,  999.0,  999.0,  999.0,  999.0,  999.0,  999.0,  999.0,  999.0,  999.0,  999.0,  999.0,  999.0,  999.0,  999.0,  999.0,  999.0,  999.0,  999.0,  999.0,  999.0,  999.0,  999.0,  999.0,  999.0,  999.0,  999.0,  999.0,  999.0,  999.0,  999.0,  999.0
2007/10/17 01:00,   -0.1,   -1.5,   -0.6,   -1.0,   -1.4,  999.0,  999.0,   -1.6,   -2.3,  999.0,  999.0,   -1.1,    1.1,    1.8,    2.3,    2.2,    2.6,    2.8,    2.5,    2.1,    1.2,    2.0,    1.6,    2.4,    2.6,    2.0,    1.9,  999.0,  999.0,    2.0,    2.0,    1.6,    1.4,    1.7,    2.3,    2.9,    2.8,    2.3,    1.9,    1.6,    1.6,    1.7,    2.0,  999.0,  999.0,  999.0,  999.0,  999.0,  999.0,    1.8,  999.0,  999.0,  999.0,  999.0,  999.0,  999.0,  999.0,  999.0,  999.0,  999.0,  999.0,  999.0,  999.0,  999.0,  999.0,  999.0,  999.0,  999.0,  999.0,  999.0,  999.0,  999.0,  999.0,  999.0,  999.0,  999.0,  999.0,  999.0,  999.0
2007/10/17 01:10,   -0.5,   -0.9,   -0.6,   -0.4,   -1.3,   -0.8,  999.0,   -0.6,   -1.5,   -2.1,   -2.4,   -1.9,   -0.6,    1.1,    2.0,    2.1,    2.1,    2.0,    1.9,    1.7,    1.2,    1.4,    1.2,    1.5,    1.7,  999.0,  999.0,  999.0,  999.0,    1.6,    1.7,  999.0,    1.2,    1.9,    2.6,    3.1,    2.4,    2.1,    1.8,    1.8,    1.3,    1.7,    1.9,  999.0,  999.0,  999.0,  999.0,  999.0,  999.0,  999.0,  999.0,  999.0,  999.0,  999.0,  999.0,  999.0,  999.0,  999.0,  999.0,  999.0,  999.0,  999.0,  999.0,  999.0,  999.0,  999.0,  999.0,  999.0,  999.0,  999.0,  999.0,  999.0,  999.0,  999.0,  999.0,  999.0,  999.0,  999.0,  999.0
2007/10/17 01:20,   -0.0,   -0.5,  999.0,   -1.0,   -1.1,   -0.6,   -0.2,   -1.3,   -1.8,   -2.5,   -3.5,  999.0,   -1.0,    0.5,    1.6,    1.9,    1.9,    2.0,    1.8,    1.6,    1.1,    1.5,    1.3,    1.4,    1.6,    1.4,    1.6,  999.0,    1.4,    1.9,    2.0,  999.0,    1.6,    2.2,    2.9,    2.8,    2.3,    1.9,    1.3,    1.5,    1.7,    1.7,  999.0,  999.0,  999.0,  999.0,  999.0,  999.0,  999.0,  999.0,  999.0,  999.0,  999.0,  999.0,  999.0,  999.0,  999.0,  999.0,  999.0,  999.0,  999.0,  999.0,  999.0,  999.0,  999.0,  999.0,  999.0,  999.0,  999.0,  999.0,  999.0,  999.0,  999.0,  999.0,  999.0,  999.0,  999.0,  999.0,  999.0
2007/10/17 01:30,   -0.0,   -0.8,   -1.4,   -2.3,   -1.1,   -1.1,   -0.3,   -1.6,   -2.5,   -2.5,   -3.3,  999.0,   -2.5,  999.0,    1.0,    1.7,    1.5,    1.7,    2.2,    2.1,    1.6,    2.1,    1.7,    1.9,    2.5,    1.8,    1.9,    1.2,    0.8,    1.8,  999.0,  999.0,    1.6,    2.4,    3.0,  999.0,    2.3,    1.5,    1.6,    1.7,    1.8,    1.8,  999.0,  999.0,   -0.2,    0.6,  999.0,  999.0,  999.0,    0.9,  999.0,  999.0,  999.0,  999.0,  999.0,  999.0,  999.0,  999.0,  999.0,  999.0,  999.0,  999.0,  999.0,  999.0,  999.0,  999.0,  999.0,  999.0,  999.0,  999.0,  999.0,  999.0,  999.0,  999.0,  999.0,  999.0,  999.0,  999.0,  999.0
2007/10/17 01:40,   -0.2,   -0.9,   -0.4,   -2.6,   -2.2,   -0.4,   -0.4,   -1.7,   -2.4,   -2.5,   -3.2,   -3.0,   -2.9,  999.0,    0.4,    1.4,    1.7,    1.9,    2.1,    2.2,    2.1,    1.9,    1.7,    1.9,    2.2,    1.8,    1.4,    0.9,    0.8,    1.5,    1.5,    1.1,    1.3,    2.1,    2.8,  999.0,    1.9,    1.1,    1.3,    1.1,    1.5,    1.7,  999.0,  999.0,  999.0,  999.0,  999.0,  999.0,  999.0,  999.0,  999.0,  999.0,  999.0,  999.0,  999.0,  999.0,  999.0,  999.0,  999.0,  999.0,  999.0,  999.0,  999.0,  999.0,  999.0,  999.0,  999.0,   -0.5,  999.0,  999.0,  999.0,  999.0,  999.0,  999.0,  999.0,  999.0,  999.0,  999.0,  999.0
2007/10/17 01:50,   -0.9,   -0.7,   -0.1,   -2.5,   -2.1,   -1.4,   -0.4,   -1.6,   -2.3,   -2.4,   -2.6,   -2.6,   -2.3,   -1.1,    0.6,    1.4,    1.4,    1.5,    2.0,    1.8,    1.5,    1.1,    1.1,    1.3,    1.9,    1.3,    1.1,    0.9,    1.6,    2.3,  999.0,    1.3,    1.7,    2.5,  999.0,  999.0,    2.2,    1.8,    1.5,    2.1,    2.3,  999.0,  999.0,  999.0,  999.0,  999.0,  999.0,  999.0,  999.0,  999.0,  999.0,  999.0,  999.0,  999.0,  999.0,  999.0,  999.0,  999.0,  999.0,  999.0,  999.0,  999.0,  999.0,  999.0,  999.0,  999.0,  999.0,  999.0,  999.0,  999.0,  999.0,  999.0,  999.0,  999.0,  999.0,  999.0,  999.0,  999.0,  999.0
2007/10/17 02:00,   -0.1,  999.0,    0.2,   -1.2,   -2.0,   -1.2,   -1.0,   -1.1,   -1.5,   -2.0,   -1.9,   -2.5,   -2.2,   -1.8,    0.2,    1.3,    1.4,    1.5,    1.6,    1.6,    1.5,    1.6,    1.3,    1.7,    2.0,    2.1,    1.0,    1.0,    1.3,    2.1,    2.0,    1.7,    1.6,    2.2,    2.9,  999.0,    1.6,    1.1,    1.3,    1.1,    1.2,  999.0,  999.0,  999.0,  999.0,  999.0,  999.0,  999.0,  999.0,  999.0,  999.0,  999.0,  999.0,  999.0,  999.0,  999.0,  999.0,  999.0,  999.0,  999.0,  999.0,  999.0,  999.0,  999.0,  999.0,  999.0,  999.0,  999.0,  999.0,  999.0,  999.0,  999.0,  999.0,  999.0,  999.0,  999.0,  999.0,  999.0,  999.0
2007/10/17 02:10,   -0.4,   -0.6,   -0.2,   -1.4,   -2.1,   -2.0,   -1.7,   -1.2,   -1.8,   -1.9,   -2.1,   -2.0,   -1.5,   -0.1,    1.1,    1.4,    1.7,    1.3,    1.9,    1.8,    1.5,    1.3,    1.2,    1.5,    1.6,    0.9,   -0.0,    0.1,    0.2,    0.7,    0.7,  999.0,  999.0,    1.5,    2.1,    2.0,    1.8,    1.2,  999.0,    1.2,    1.0,  999.0,  999.0,  999.0,  999.0,  999.0,  999.0,  999.0,  999.0,  999.0,  999.0,  999.0,  999.0,  999.0,  999.0,  999.0,  999.0,  999.0,  999.0,  999.0,  999.0,  999.0,  999.0,  999.0,  999.0,  999.0,  999.0,  999.0,  999.0,  999.0,  999.0,  999.0,  999.0,  999.0,  999.0,  999.0,  999.0,  999.0,  999.0
2007/10/17 02:20,  999.0,  999.0,   -0.1,   -1.4,   -2.4,   -2.3,   -1.3,   -1.8,   -1.9,   -2.3,   -1.8,   -2.3,   -1.8,   -0.8,    1.1,    1.5,    1.6,    1.7,    2.0,    2.0,    1.6,    1.3,    1.4,    0.8,    1.6,    1.5,    0.9,    0.2,    0.6,    1.5,    0.8,    0.5,  999.0,    1.8,    2.0,  999.0,    1.5,    1.1,    0.8,  999.0,  999.0,  999.0,  999.0,  999.0,  999.0,  999.0,  999.0,  999.0,  999.0,  999.0,  999.0,  999.0,  999.0,  999.0,  999.0,  999.0,  999.0,  999.0,  999.0,  999.0,  999.0,  999.0,  999.0,  999.0,  999.0,  999.0,  999.0,  999.0,  999.0,  999.0,  999.0,  999.0,  999.0,  999.0,  999.0,  999.0,  999.0,  999.0,  999.0
2007/10/17 02:30,  999.0,  999.0,   -0.0,   -0.6,   -2.1,   -1.7,   -0.5,   -0.9,   -1.2,   -2.0,   -2.0,   -1.9,   -1.3,   -0.3,    1.3,    1.7,    1.8,    2.1,    2.3,    2.4,    2.1,    1.7,    1.4,    1.1,    1.1,    0.8,    0.6,    0.0,  999.0,    0.1,    0.7,    0.5,    0.3,    0.8,    1.7,    1.7,    1.5,    0.8,  999.0,    0.6,    0.5,  999.0,  999.0,  999.0,  999.0,  999.0,  999.0,  999.0,  999.0,  999.0,  999.0,  999.0,  999.0,  999.0,  999.0,  999.0,  999.0,  999.0,  999.0,  999.0,  999.0,  999.0,  999.0,  999.0,  999.0,  999.0,  999.0,  999.0,  999.0,  999.0,  999.0,  999.0,  999.0,  999.0,  999.0,  999.0,  999.0,  999.0,  999.0
2007/10/17 02:40,   -0.2,   -0.2,   -0.1,   -0.9,   -1.6,   -1.6,   -0.4,   -1.1,   -1.2,   -1.5,   -1.9,   -1.3,  999.0,    0.4,    1.6,    1.6,    1.5,    1.9,    2.1,    2.1,    2.1,    1.6,    1.2,    1.1,    0.8,    1.0,    0.1,   -0.3,  999.0,  999.0,    0.2,  999.0,  999.0,    0.4,  999.0,    0.9,    1.1,    1.0,    0.1,  999.0,  999.0,    0.2,  999.0,   -0.2,  999.0,  999.0,  999.0,  999.0,  999.0,  999.0,  999.0,  999.0,  999.0,  999.0,  999.0,  999.0,  999.0,  999.0,  999.0,  999.0,  999.0,  999.0,  999.0,  999.0,  999.0,  999.0,  999.0,  999.0,  999.0,  999.0,  999.0,  999.0,  999.0,  999.0,  999.0,  999.0,  999.0,  999.0,  999.0
2007/10/17 02:50,   -0.5,   -0.0,   -0.1,   -0.6,   -1.4,  999.0,   -0.4,  999.0,   -1.1,   -1.3,   -1.5,  999.0,   -0.9,    0.8,    1.8,    1.9,    2.1,    2.1,    2.3,    1.7,    1.8,    1.8,    1.2,    1.1,    1.2,    1.1,    0.4,  999.0,  999.0,  999.0,    0.4,    0.1,  999.0,    0.2,    1.4,    1.8,  999.0,  999.0,  999.0,    1.0,  999.0,    0.8,  999.0,  999.0,  999.0,  999.0,  999.0,  999.0,  999.0,  999.0,  999.0,  999.0,  999.0,  999.0,  999.0,  999.0,  999.0,  999.0,  999.0,  999.0,  999.0,  999.0,  999.0,  999.0,  999.0,  999.0,  999.0,  999.0,  999.0,  999.0,  999.0,  999.0,  999.0,  999.0,  999.0,  999.0,  999.0,  999.0,  999.0
2007/10/17 03:00,   -0.7,   -0.8,   -0.4,   -0.6,   -0.9,   -0.5,  999.0,   -0.7,   -0.9,   -1.4,   -1.7,   -1.7,   -1.1,   -0.4,    0.7,    1.3,    1.3,    1.4,    2.1,    1.9,    1.9,    1.8,    1.6,    1.3,    1.8,    1.5,    0.9,    0.4,  999.0,  999.0,  999.0,    0.2,    0.0,    0.6,    1.3,    1.9,  999.0,    0.3,    0.5,    0.5,   -0.4,  999.0,  999.0,  999.0,  999.0,  999.0,  999.0,  999.0,  999.0,  999.0,  999.0,  999.0,  999.0,  999.0,  999.0,  999.0,  999.0,  999.0,  999.0,  999.0,  999.0,  999.0,  999.0,  999.0,  999.0,  999.0,  999.0,  999.0,  999.0,  999.0,  999.0,  999.0,  999.0,  999.0,  999.0,  999.0,  999.0,  999.0,  999.0
2007/10/17 03:10,   -0.1,   -0.2,   -0.3,   -0.6,   -1.1,   -1.1,  999.0,   -1.3,   -1.5,   -2.0,   -2.2,   -2.1,   -1.2,   -0.2,    1.5,    1.7,    1.8,    1.8,  999.0,    1.8,  999.0,    1.7,    1.4,    1.1,    1.7,    0.9,    0.6,   -0.1,   -0.2,  999.0,    0.2,   -0.0,    0.1,    0.5,    1.6,    1.9,    1.0,    0.3,    0.8,  999.0,  999.0,  999.0,  999.0,  999.0,  999.0,  999.0,  999.0,  999.0,  999.0,  999.0,  999.0,  999.0,  999.0,  999.0,  999.0,  999.0,  999.0,  999.0,  999.0,  999.0,  999.0,  999.0,  999.0,  999.0,  999.0,  999.0,  999.0,  999.0,  999.0,  999.0,  999.0,  999.0,  999.0,  999.0,  999.0,  999.0,  999.0,  999.0,  999.0
2007/10/17 03:20,   -0.6,   -0.5,   -0.1,   -0.1,   -1.1,   -0.6,   -0.5,   -0.9,   -1.2,   -1.7,   -2.0,   -1.8,   -1.1,   -0.3,    0.8,    1.3,    1.8,    0.6,    0.6,    0.7,    1.3,    1.6,    0.9,    1.2,    1.2,    0.9,    0.8,   -0.1,   -0.0,    0.0,  999.0,    0.0,    0.2,    0.7,    1.3,    1.7,  999.0,   -0.0,   -0.4,  999.0,  999.0,  999.0,  999.0,  999.0,  999.0,  999.0,  999.0,  999.0,  999.0,  999.0,  999.0,  999.0,  999.0,  999.0,  999.0,  999.0,  999.0,  999.0,  999.0,  999.0,  999.0,  999.0,  999.0,  999.0,  999.0,  999.0,  999.0,  999.0,  999.0,  999.0,  999.0,  999.0,  999.0,  999.0,  999.0,  999.0,  999.0,  999.0,  999.0
2007/10/17 03:30,   -0.3,   -0.4,   -0.0,   -0.2,   -1.2,   -0.8,   -0.4,   -1.3,   -1.5,   -2.4,   -2.5,   -1.8,   -0.4,    0.8,  999.0,  999.0,    1.1,    0.6,    1.0,    1.8,    2.7,    1.9,    1.4,    2.1,    1.6,    1.2,    0.6,   -0.0,   -0.1,   -0.1,  999.0,    0.5,  999.0,    0.6,    0.7,    1.5,    1.2,  999.0,    0.2,    0.4,  999.0,  999.0,  999.0,  999.0,  999.0,  999.0,  999.0,  999.0,  999.0,  999.0,  999.0,  999.0,  999.0,   -1.1,  999.0,  999.0,  999.0,  999.0,  999.0,  999.0,  999.0,  999.0,  999.0,  999.0,  999.0,  999.0,  999.0,  999.0,  999.0,  999.0,  999.0,  999.0,  999.0,  999.0,  999.0,  999.0,  999.0,  999.0,  999.0
2007/10/17 03:40,   -0.3,   -0.3,   -0.2,   -0.2,   -0.4,   -0.3,  999.0,   -0.5,   -1.1,   -2.1,   -2.2,   -1.6,   -0.1,    0.8,  999.0,    1.2,    0.7,    1.0,    0.9,    1.3,    1.7,    0.7,    0.7,    1.3,    0.4,    0.4,   -0.2,   -0.2,   -0.1,    0.0,   -0.1,   -0.2,   -0.3,    0.3,    1.2,    1.6,    1.3,    0.4,    0.5,    0.3,  999.0,  999.0,   -0.3,  999.0,  999.0,  999.0,  999.0,  999.0,  999.0,  999.0,  999.0,  999.0,  999.0,   -1.7,  999.0,  999.0,  999.0,  999.0,  999.0,  999.0,  999.0,  999.0,  999.0,  999.0,  999.0,  999.0,  999.0,  999.0,  999.0,  999.0,  999.0,  999.0,  999.0,  999.0,  999.0,  999.0,  999.0,  999.0,  999.0
2007/10/17 03:50,   -0.4,   -0.3,   -0.1,   -0.2,   -0.4,  999.0,  999.0,   -0.3,   -0.5,   -1.5,   -1.5,   -1.2,   -0.1,    0.8,    1.2,    1.4,    0.9,    1.3,    1.4,    1.7,    1.9,    0.9,    0.8,    1.2,    0.4,    0.4,   -0.2,    0.0,   -0.0,    0.2,    0.8,    0.4,    0.2,    0.6,    0.7,    1.4,    1.0,    0.4,   -0.0,   -0.5,   -1.3,  999.0,  999.0,  999.0,  999.0,  999.0,  999.0,  999.0,  999.0,  999.0,  999.0,  999.0,  999.0,  999.0,  999.0,  999.0,  999.0,  999.0,  999.0,  999.0,  999.0,  999.0,  999.0,  999.0,  999.0,  999.0,  999.0,  999.0,  999.0,  999.0,  999.0,  999.0,  999.0,  999.0,  999.0,  999.0,  999.0,  999.0,  999.0
2007/10/17 04:00,   -0.4,   -0.4,   -0.1,   -0.3,   -0.3,   -0.0,  999.0,  999.0,   -1.1,   -0.9,   -1.5,   -1.2,   -0.5,    0.2,    1.4,    1.9,    2.0,    1.7,    1.9,    2.0,    2.0,    1.9,    1.6,    1.6,    1.3,    0.8,    0.2,    0.1,    0.1,    0.2,    0.7,    0.7,    0.3,    0.1,    1.1,    0.8,   -0.0,  999.0,   -1.2,  999.0,  999.0,  999.0,  999.0,  999.0,   -2.6,  999.0,  999.0,  999.0,  999.0,  999.0,  999.0,  999.0,  999.0,  999.0,  999.0,  999.0,  999.0,  999.0,  999.0,  999.0,  999.0,  999.0,  999.0,  999.0,  999.0,  999.0,  999.0,  999.0,    0.2,  999.0,  999.0,  999.0,  999.0,  999.0,  999.0,  999.0,  999.0,  999.0,  999.0
2007/10/17 04:10,   -0.1,   -0.1,   -0.1,   -0.1,   -0.2,   -0.0,  999.0,   -1.1,   -0.9,   -1.0,   -1.0,   -0.5,   -0.2,    0.6,    1.3,    1.8,    1.6,    1.3,    1.7,    1.9,    2.6,    1.9,    1.9,    2.3,    1.7,    1.9,    0.7,    0.2,    0.2,    0.8,    1.5,    0.4,    0.3,    0.4,    0.6,    0.3,   -0.4,   -0.9,   -1.5,   -1.7,   -2.0,   -2.3,  999.0,  999.0,  999.0,  999.0,  999.0,  999.0,  999.0,  999.0,  999.0,  999.0,  999.0,  999.0,   -3.0,   -2.8,  999.0,  999.0,  999.0,  999.0,  999.0,  999.0,  999.0,  999.0,  999.0,  999.0,  999.0,  999.0,  999.0,  999.0,  999.0,  999.0,  999.0,  999.0,    2.6,  999.0,  999.0,  999.0,  999.0
2007/10/17 04:20,    0.0,   -0.1,  999.0,    0.0,   -0.2,    0.0,  999.0,   -0.5,   -0.7,   -1.1,   -0.7,   -0.0,   -0.0,    0.6,    1.1,    1.9,    1.9,    1.5,    2.1,    2.1,    2.6,    1.9,    2.0,    1.9,    1.6,    1.2,    0.8,    0.2,    0.3,    0.8,    0.6,    0.0,    0.6,    0.7,  999.0,    0.0,   -0.4,   -1.2,   -1.6,   -1.9,  999.0,  999.0,  999.0,  999.0,   -2.7,   -2.5,  999.0,  999.0,  999.0,  999.0,  999.0,  999.0,  999.0,  999.0,  999.0,  999.0,  999.0,  999.0,  999.0,  999.0,  999.0,  999.0,  999.0,  999.0,  999.0,  999.0,  999.0,  999.0,  999.0,  999.0,  999.0,  999.0,    2.2,    2.7,    3.1,  999.0,  999.0,  999.0,  999.0
2007/10/17 04:30,    0.0,   -0.1,   -0.0,   -0.1,   -0.2,   -0.0,  999.0,   -0.5,   -0.3,   -0.4,   -0.3,    0.4,    0.8,    1.7,    2.4,    2.8,    2.6,    2.5,    2.9,    2.7,    2.3,    2.1,    2.0,    1.4,    1.0,    0.6,    0.5,   -0.1,    0.3,    0.8,    0.2,    0.4,  999.0,    1.4,    0.9,   -0.1,   -1.0,   -2.1,   -2.5,   -2.2,  999.0,  999.0,  999.0,  999.0,  999.0,  999.0,  999.0,  999.0,  999.0,  999.0,  999.0,  999.0,  999.0,  999.0,  999.0,  999.0,  999.0,  999.0,  999.0,  999.0,  999.0,  999.0,  999.0,  999.0,  999.0,  999.0,  999.0,  999.0,  999.0,  999.0,  999.0,  999.0,    1.6,    1.7,    2.1,  999.0,  999.0,  999.0,  999.0
2007/10/17 04:40,    0.0,    0.0,    0.2,   -0.0,   -0.1,    0.0,  999.0,   -0.5,   -0.8,   -1.0,   -0.2,    0.9,    1.0,    1.6,    2.2,    2.1,    2.5,    3.0,    3.0,    3.2,    2.1,    2.6,    3.0,    2.1,    1.7,    1.4,    1.6,    0.3,    0.3,    0.8,    1.8,    1.0,    1.1,    1.5,    2.2,    1.6,  999.0,  999.0,   -0.4,  999.0,  999.0,  999.0,  999.0,  999.0,  999.0,  999.0,  999.0,  999.0,  999.0,  999.0,  999.0,  999.0,   -1.5,  999.0,  999.0,  999.0,   -2.3,  999.0,  999.0,  999.0,  999.0,  999.0,  999.0,  999.0,  999.0,  999.0,  999.0,  999.0,  999.0,  999.0,  999.0,  999.0,    1.3,    1.6,    2.3,  999.0,  999.0,  999.0,  999.0
2007/10/17 04:50,    0.1,    0.1,    0.0,   -0.2,   -0.2,    0.0,  999.0,   -0.6,   -1.4,   -0.5,    0.7,    1.2,    1.2,    2.1,    2.3,    2.0,    2.8,    3.4,    3.3,    3.7,    3.5,    3.5,    3.7,    3.6,    2.7,    2.8,    1.9,    1.0,    0.6,    1.8,    2.6,    1.5,    1.3,    1.4,    2.1,    1.4,  999.0,   -0.6,  999.0,   -2.1,  999.0,  999.0,  999.0,  999.0,  999.0,  999.0,  999.0,   -4.9,   -4.6,   -4.6,  999.0,   -2.9,   -4.6,  999.0,   -5.1,   -5.1,  999.0,  999.0,  999.0,  999.0,  999.0,  999.0,  999.0,  999.0,  999.0,  999.0,  999.0,  999.0,  999.0,  999.0,  999.0,  999.0,  999.0,  999.0,    1.7,  999.0,  999.0,  999.0,  999.0
2007/10/17 05:00,   -0.1,    0.0,    0.2,   -0.1,   -0.1,   -0.1,  999.0,   -0.0,   -0.4,    0.2,    0.9,    1.6,    1.4,    2.3,    2.0,    1.9,    2.4,    2.9,    2.5,    2.8,    2.5,    2.3,    2.7,    2.5,    1.6,    1.7,    1.2,    0.6,  999.0,    1.6,    1.9,    1.2,    0.9,    1.2,    2.2,  999.0,  999.0,    0.6,   -1.1,  999.0,  999.0,  999.0,  999.0,  999.0,  999.0,  999.0,   -2.6,   -3.3,   -2.8,  999.0,   -1.6,   -2.7,   -3.2,   -3.9,   -4.4,   -4.8,   -4.7,   -3.3,  999.0,  999.0,  999.0,  999.0,  999.0,  999.0,  999.0,  999.0,  999.0,  999.0,  999.0,  999.0,  999.0,  999.0,  999.0,    2.0,    0.4,  999.0,  999.0,  999.0,  999.0
2007/10/17 05:10,   -0.0,    0.0,    0.0,    0.0,    0.2,   -0.1,  999.0,   -0.2,   -0.3,    0.4,    0.9,    1.4,    1.7,    2.0,    1.5,    2.3,    2.4,    2.7,  999.0,    2.6,    2.2,    2.4,    2.8,    2.2,    2.3,    1.5,    1.4,  999.0,    2.1,    2.2,    1.2,    0.8,    1.3,    1.8,    1.8,    0.9,    0.6,   -0.1,   -1.0,   -1.0,  999.0,  999.0,  999.0,  999.0,  999.0,  999.0,  999.0,  999.0,  999.0,  999.0,   -2.0,   -2.8,   -3.5,   -3.8,   -3.8,   -3.9,   -3.3,   -4.3,   -4.6,  999.0,  999.0,  999.0,  999.0,  999.0,  999.0,  999.0,  999.0,  999.0,  999.0,  999.0,  999.0,  999.0,  999.0,  999.0,   -0.2,  999.0,  999.0,  999.0,  999.0
2007/10/17 05:20,    0.4,    0.3,    0.4,  999.0,  999.0,    0.3,    0.4,    0.2,    0.3,    0.8,    1.5,    1.5,    1.8,    1.6,    1.8,    2.0,    2.3,    2.5,    2.3,    2.2,    1.8,    1.9,    2.1,    2.0,    2.2,    1.2,  999.0,  999.0,  999.0,    1.5,    1.6,    1.1,    0.8,    1.0,    1.5,    1.2,    0.3,   -0.3,   -1.0,   -1.3,  999.0,  999.0,  999.0,  999.0,  999.0,  999.0,  999.0,  999.0,  999.0,  999.0,   -1.8,   -3.3,   -3.6,   -4.3,   -4.0,   -3.6,   -3.3,   -3.6,   -3.8,   -4.6,  999.0,  999.0,  999.0,  999.0,  999.0,  999.0,  999.0,  999.0,  999.0,  999.0,   -0.4,   -0.2,    0.1,   -0.1,  999.0,  999.0,  999.0,  999.0,  999.0
2007/10/17 05:30,   -0.1,   -0.1,   -0.1,    0.1,    0.1,   -0.3,   -0.1,  999.0,    0.2,    0.4,    0.9,    1.3,    1.0,    1.1,    1.1,    1.6,    2.0,    2.6,    2.5,    2.3,    2.3,    2.4,    2.7,    2.8,    3.0,    2.6,    1.9,    1.6,    1.8,    2.1,    2.7,    1.3,  999.0,    1.5,  999.0,    1.4,  999.0,  999.0,  999.0,  999.0,   -0.7,  999.0,  999.0,  999.0,  999.0,  999.0,  999.0,  999.0,   -2.7,   -2.8,   -3.4,   -3.8,   -4.2,  999.0,   -4.2,   -5.0,   -4.8,   -4.8,   -4.8,   -5.1,   -5.5,  999.0,  999.0,  999.0,  999.0,  999.0,  999.0,  999.0,  999.0,  999.0,  999.0,   -1.5,  999.0,  999.0,  999.0,  999.0,  999.0,  999.0,  999.0
2007/10/17 05:40,  999.0,   -0.1,   -0.3,   -0.1,   -0.1,    0.3,  999.0,  999.0,    0.6,    0.5,  999.0,    1.1,  999.0,    1.5,    1.1,    1.5,    2.4,    2.1,    3.0,    2.6,    2.6,    2.9,    3.0,    2.9,    2.6,    2.3,    1.6,    0.7,    1.4,    1.7,    1.4,    0.6,    0.7,  999.0,    1.5,  999.0,    0.9,  999.0,  999.0,  999.0,  999.0,  999.0,  999.0,  999.0,  999.0,   -2.1,   -2.5,   -2.5,   -2.5,   -2.1,   -2.4,   -2.9,   -3.1,   -3.9,   -4.1,   -4.3,   -4.5,   -4.6,   -4.3,   -4.7,   -5.1,   -5.5,   -5.6,   -4.6,  999.0,  999.0,  999.0,  999.0,  999.0,  999.0,  999.0,  999.0,  999.0,  999.0,  999.0,  999.0,  999.0,  999.0,  999.0
2007/10/17 05:50,    0.2,    0.6,    0.0,    0.1,   -0.1,    0.1,   -0.1,   -0.1,   -0.1,    0.2,    1.1,    1.5,    1.3,    1.3,    1.7,    2.2,    2.8,    2.9,    2.8,    2.9,    2.6,    3.0,    3.2,    2.7,    2.9,    2.1,    2.3,    1.1,    2.6,    2.9,    2.2,    1.5,    1.5,    2.1,    2.2,    2.4,    0.6,    0.2,  999.0,  999.0,    0.2,   -0.7,  999.0,   -0.9,   -1.5,   -1.9,   -2.1,   -2.3,   -2.3,   -2.2,   -1.5,   -1.6,   -2.7,   -3.4,   -3.6,   -3.9,   -4.2,   -3.6,   -3.9,   -4.3,   -4.5,   -5.4,   -4.9,   -4.8,   -5.2,  999.0,  999.0,  999.0,  999.0,  999.0,  999.0,  999.0,  999.0,  999.0,  999.0,  999.0,  999.0,  999.0,  999.0
2007/10/17 06:00,    0.1,    0.0,    0.5,    0.2,    0.2,    0.1,    0.0,    0.1,    0.6,    0.4,    1.3,    1.5,    1.2,    1.4,    1.8,    2.5,    3.0,    3.1,    2.9,    3.0,    2.9,    2.6,    3.1,    2.6,    2.3,    1.6,    1.8,    1.8,    2.2,    2.1,    1.8,    1.2,    0.8,    1.2,    2.5,  999.0,    1.7,  999.0,  999.0,  999.0,  999.0,  999.0,  999.0,   -0.7,   -0.8,   -0.9,   -2.0,   -2.4,   -1.8,   -1.4,   -1.5,   -2.4,   -2.8,   -3.3,   -3.8,   -4.2,   -4.2,   -3.9,   -3.9,   -4.7,   -4.7,   -4.9,  999.0,   -4.6,  999.0,  999.0,  999.0,  999.0,  999.0,  999.0,  999.0,  999.0,   -1.7,  999.0,  999.0,  999.0,  999.0,  999.0,  999.0
2007/10/17 06:10,  999.0,  999.0,    0.5,  999.0,    0.4,    0.3,  999.0,  999.0,    0.6,    0.1,    0.8,    1.2,    1.0,    1.1,    1.4,    1.8,    2.2,    2.7,    2.6,    2.5,    2.2,    2.1,    2.1,    2.2,    1.7,    1.7,    1.6,    2.0,    2.2,    2.1,  999.0,    1.0,    1.1,    1.6,    2.6,    1.9,    1.3,  999.0,  999.0,  999.0,  999.0,  999.0,  999.0,   -0.9,   -1.7,  999.0,  999.0,  999.0,   -1.1,   -0.8,   -1.0,   -1.7,   -1.8,   -2.4,  999.0,  999.0,   -3.1,  999.0,  999.0,  999.0,  999.0,   -4.4,   -4.6,   -4.3,   -4.3,   -4.2,  999.0,  999.0,  999.0,  999.0,  999.0,  999.0,   -1.1,  999.0,  999.0,  999.0,  999.0,  999.0,  999.0
2007/10/17 06:20,    1.3,  999.0,  999.0,  999.0,  999.0,  999.0,   -1.2,  999.0,  999.0,  999.0,  999.0,    0.2,   -0.0,    0.5,    0.6,  999.0,    2.6,    3.8,    3.9,    3.5,    3.2,    3.2,    3.0,    2.9,    2.7,    2.2,    2.3,    2.5,    2.7,    2.5,    1.7,    1.4,    1.5,    1.6,  999.0,  999.0,    1.4,  999.0,  999.0,  999.0,  999.0,   -1.3,  999.0,   -2.6,   -2.3,   -2.8,   -3.0,   -2.7,   -2.1,   -1.7,   -2.1,   -2.3,   -3.1,  999.0,  999.0,   -4.3,   -4.1,   -4.5,   -4.9,   -5.0,   -5.4,   -5.6,  999.0,  999.0,  999.0,   -4.1,  999.0,  999.0,  999.0,  999.0,   -2.3,  999.0,  999.0,  999.0,  999.0,  999.0,  999.0,  999.0,  999.0
2007/10/17 06:30,    0.1,  999.0,    0.1,    0.4,    0.4,    0.1,    0.2,    0.3,  999.0,    0.7,    0.4,    1.3,    0.3,    0.3,    0.8,    1.0,    1.1,    1.3,    1.2,    0.7,  999.0,    3.7,  999.0,    2.9,    3.0,    2.3,    2.3,    2.6,    2.4,    2.3,    1.7,    1.6,    1.7,    1.8,  999.0,    1.1,  999.0,  999.0,  999.0,  999.0,  999.0,  999.0,   -1.2,   -1.2,   -2.1,   -2.9,   -2.6,   -1.7,  999.0,   -2.1,   -1.9,   -2.1,   -2.6,   -3.0,  999.0,  999.0,  999.0,   -3.9,   -3.7,   -4.7,   -5.0,  999.0,   -5.8,  999.0,  999.0,  999.0,   -3.9,   -3.9,  999.0,  999.0,  999.0,  999.0,  999.0,  999.0,  999.0,  999.0,  999.0,  999.0,  999.0
2007/10/17 06:40,  999.0,  999.0,  999.0,    0.8,    0.6,  999.0,  999.0,    0.0,  999.0,    0.1,    0.1,    0.6,  999.0,    1.0,    1.9,  999.0,  999.0,    0.6,    0.8,    0.5,  999.0,  999.0,    1.5,  999.0,    2.9,    2.1,    2.7,    2.6,    2.6,    2.3,    2.3,    2.5,    2.7,    3.1,    2.3,    1.7,  999.0,    0.9,    0.6,  999.0,   -0.5,   -0.4,   -0.5,   -0.4,   -1.2,   -1.6,   -1.8,   -1.8,   -2.5,   -2.5,   -2.2,   -2.4,   -2.5,   -2.8,   -3.4,   -3.9,   -4.4,   -4.4,   -4.8,  999.0,   -5.0,   -5.8,  999.0,  999.0,  999.0,  999.0,  999.0,   -3.3,  999.0,  999.0,  999.0,  999.0,  999.0,  999.0,  999.0,  999.0,  999.0,  999.0,  999.0
2007/10/17 06:50,  999.0,  999.0,  999.0,  999.0,  999.0,  999.0,  999.0,    0.5,  999.0,    0.7,  999.0,    1.9,  999.0,  999.0,    2.9,  999.0,    2.8,    2.7,    2.6,  999.0,  999.0,    2.0,    1.1,    1.4,    1.4,    1.0,    1.8,    1.7,    1.4,    1.2,    1.5,    1.9,    2.0,    3.0,    2.2,    1.8,    1.6,  999.0,  999.0,  999.0,  999.0,   -0.7,   -1.3,   -1.2,   -1.2,   -1.3,   -1.8,   -2.4,   -2.4,   -1.9,   -1.8,   -1.8,   -2.2,   -2.3,   -2.9,   -3.3,   -3.9,   -3.9,   -4.3,   -4.4,   -4.3,   -5.0,   -5.5,   -6.1,  999.0,  999.0,  999.0,  999.0,  999.0,  999.0,  999.0,  999.0,  999.0,  999.0,  999.0,  999.0,  999.0,  999.0,  999.0
2007/10/17 07:00,  999.0,  999.0,  999.0,  999.0,    0.7,  999.0,  999.0,  999.0,  999.0,  999.0,    1.3,  999.0,    1.6,    2.4,    2.7,    1.9,    1.8,    1.9,    2.0,    1.5,    1.6,    2.8,    3.3,    2.2,    2.5,    3.1,    2.9,    2.6,    2.3,    1.9,    2.1,    2.1,    2.5,    2.5,    2.1,    1.4,    0.9,   -0.0,   -0.2,  999.0,   -0.6,   -1.4,   -2.3,  999.0,  999.0,   -3.0,   -3.1,   -3.3,   -2.5,   -2.0,   -2.3,   -2.2,   -2.6,   -2.8,   -3.7,   -4.3,   -4.2,   -4.2,   -4.6,   -4.7,   -5.0,   -4.9,  999.0,  999.0,  999.0,  999.0,  999.0,  999.0,   -0.7,  999.0,  999.0,  999.0,  999.0,  999.0,  999.0,  999.0,  999.0,  999.0,  999.0
2007/10/17 07:10,  999.0,  999.0,  999.0,  999.0,  999.0,  999.0,    0.5,  999.0,  999.0,    0.5,    1.7,    1.9,    2.4,    2.6,  999.0,    2.2,    2.7,    2.3,    2.1,    2.6,    3.0,    3.0,    2.6,    2.0,    2.6,  999.0,    3.2,    2.7,    2.8,    2.3,    2.8,    2.3,    2.1,    2.4,  999.0,    2.3,    2.0,    1.3,    1.0,    0.2,   -0.4,   -0.9,   -1.9,   -2.6,  999.0,   -3.5,   -4.0,   -4.1,   -3.4,   -3.1,   -3.5,   -3.4,   -4.3,   -4.5,   -4.7,   -5.2,   -6.1,   -6.0,   -6.3,   -6.5,   -6.3,   -5.6,  999.0,  999.0,  999.0,  999.0,   -3.0,   -1.8,   -1.7,  999.0,  999.0,  999.0,  999.0,  999.0,  999.0,  999.0,  999.0,  999.0,  999.0
2007/10/17 07:20,  999.0,  999.0,  999.0,  999.0,  999.0,    0.2,  999.0,  999.0,    0.9,    1.7,    2.3,    2.4,    2.1,    3.0,    2.6,    2.4,    3.1,    3.4,    3.2,    3.4,    3.6,    3.3,    3.3,    3.5,    2.8,    3.1,    3.3,    3.6,    2.9,    2.3,    2.2,    2.3,    1.9,    2.1,    2.4,    2.0,    1.9,    1.1,    0.8,    0.1,   -2.0,   -2.1,   -2.8,   -3.2,   -3.8,   -4.0,   -4.6,   -4.2,   -4.0,   -3.6,   -3.5,   -3.5,   -3.7,   -4.3,   -5.4,   -6.2,   -5.2,   -4.9,   -4.6,   -5.6,   -4.9,   -5.5,  999.0,  999.0,  999.0,  999.0,   -3.0,   -2.5,   -1.8,  999.0,  999.0,  999.0,  999.0,  999.0,  999.0,  999.0,  999.0,  999.0,  999.0
2007/10/17 07:30,  999.0,  999.0,  999.0,  999.0,  999.0,  999.0,   -0.4,   -0.2,    0.1,    1.2,    1.8,    1.6,    1.9,    2.5,    2.1,    2.3,    3.4,    3.3,    3.4,    3.6,    3.6,    4.0,    4.1,    3.7,    3.6,    3.2,    3.5,    3.2,    3.3,    2.7,    2.6,    2.8,    2.1,    2.5,    2.7,    2.3,    2.3,    1.4,  999.0,  999.0,  999.0,   -1.3,  999.0,  999.0,  999.0,  999.0,   -4.1,   -4.1,  999.0,  999.0,  999.0,   -4.2,   -4.6,   -5.7,   -6.0,   -5.7,   -4.9,   -5.2,   -4.9,   -4.7,   -4.7,   -5.0,  999.0,  999.0,  999.0,  999.0,  999.0,   -1.6,   -1.1,   -0.6,  999.0,  999.0,  999.0,  999.0,  999.0,  999.0,  999.0,  999.0,  999.0
2007/10/17 07:40,  999.0,  999.0,    0.1,    0.3,    0.6,   -0.4,   -0.0,   -0.3,    0.1,    1.3,    2.1,    1.7,    1.8,    2.2,    1.7,    2.3,    3.4,    3.4,    3.3,    3.6,    3.8,    3.9,    3.9,    3.6,    3.5,    3.2,    3.3,    3.1,    2.6,    2.4,    2.8,    2.8,    2.5,    2.9,    2.5,    2.5,    1.7,    1.5,    1.3,  999.0,  999.0,  999.0,   -1.6,  999.0,  999.0,  999.0,  999.0,  999.0,  999.0,  999.0,  999.0,   -4.7,   -6.0,   -6.2,   -6.0,   -6.4,   -6.0,   -6.4,   -6.2,   -6.2,   -6.3,   -6.2,   -5.0,   -4.9,  999.0,  999.0,  999.0,  999.0,  999.0,  999.0,  999.0,  999.0,  999.0,  999.0,  999.0,  999.0,  999.0,  999.0,  999.0
2007/10/17 07:50,  999.0,  999.0,  999.0,    0.5,    0.7,   -0.1,   -0.1,   -0.2,    0.2,    1.4,    2.6,    2.5,    1.8,    1.9,    2.4,    2.5,    3.8,    3.5,    3.7,    4.1,    4.3,    4.4,    4.6,    4.8,    4.5,    4.1,    4.1,    5.0,    4.3,    3.6,    3.3,    3.6,    3.1,    3.6,    3.1,    2.9,    1.8,    1.7,    1.6,   -0.1,   -1.2,   -1.8,  999.0,  999.0,   -3.4,   -3.8,   -3.9,   -3.9,  999.0,  999.0,  999.0,  999.0,   -5.5,   -5.2,   -5.6,   -5.7,   -5.5,   -5.6,   -5.6,   -5.4,   -4.9,   -4.8,   -4.8,   -4.4,  999.0,  999.0,   -2.1,   -2.4,   -2.0,  999.0,  999.0,   -1.6,  999.0,  999.0,  999.0,  999.0,  999.0,  999.0,  999.0
2007/10/17 08:00,  999.0,  999.0,  999.0,    0.5,    0.7,    0.0,  999.0,   -0.2,   -0.2,    0.7,    1.6,    1.6,    0.9,    1.6,    2.3,    3.2,    3.5,    3.3,    3.6,    3.9,    4.0,    4.1,    4.6,    4.4,    4.3,    4.0,    4.2,    4.1,    4.8,    3.2,    3.3,    3.6,    3.1,    3.9,    2.7,    2.1,    1.9,    1.3,    1.2,   -0.9,   -1.5,   -2.5,   -2.6,   -2.7,  999.0,   -3.8,   -4.4,  999.0,   -3.9,   -4.2,  999.0,   -5.0,   -5.3,   -6.1,   -6.2,   -6.2,   -6.0,   -5.5,   -5.4,   -6.0,   -6.1,   -6.0,   -5.4,   -5.4,  999.0,  999.0,  999.0,  999.0,  999.0,    0.2,   -0.4,  999.0,  999.0,  999.0,  999.0,  999.0,  999.0,  999.0,  999.0
2007/10/17 08:10,  999.0,    0.4,   -0.5,    0.7,  999.0,    0.2,   -0.1,    0.0,   -0.3,    0.3,    1.2,    0.9,    0.6,    1.3,    1.7,    2.5,    2.9,    2.6,    2.9,    3.5,    3.5,    4.4,    4.4,    4.0,  999.0,    3.9,    4.4,    3.6,    3.7,    3.5,    2.5,    3.1,    3.2,    2.9,    2.9,    2.1,    1.5,    1.1,    1.2,    0.1,   -0.9,   -1.6,   -1.8,   -2.6,   -3.2,   -4.0,   -4.9,   -3.6,   -4.0,   -4.1,   -4.1,   -5.0,   -5.3,   -5.6,   -5.6,   -5.5,   -5.5,   -5.6,   -6.2,   -6.5,  999.0,   -5.0,   -4.8,   -4.5,  999.0,   -2.6,  999.0,   -1.2,   -0.7,  999.0,   -1.3,   -1.4,  999.0,  999.0,  999.0,  999.0,  999.0,  999.0,  999.0
2007/10/17 08:20,  999.0,   -0.4,  999.0,    0.0,   -0.0,   -0.3,   -0.6,   -0.9,   -0.7,   -0.6,    0.5,    1.0,    1.1,    0.3,    0.3,    0.8,    1.7,    2.1,    1.9,    2.6,    3.2,    4.0,    4.2,    4.3,    4.0,    3.6,    3.5,    3.9,    4.5,    4.2,    4.0,    2.8,    3.5,    3.6,    3.6,    3.5,    2.6,    1.6,    1.0,    1.1,    0.5,   -0.7,   -1.5,   -1.5,   -2.1,  999.0,  999.0,   -3.4,   -4.0,   -4.3,   -4.5,   -4.2,   -5.0,   -5.2,   -5.3,   -5.5,   -6.1,   -6.1,   -6.4,  999.0,  999.0,   -5.2,   -4.8,   -4.9,  999.0,  999.0,   -2.5,   -1.8,   -0.9,   -1.2,   -0.8,  999.0,  999.0,  999.0,    3.6,    4.2,    4.5,  999.0,  999.0
2007/10/17 08:30,    0.2,    0.3,   -0.1,    0.2,    0.2,  999.0,   -0.3,   -1.0,   -0.8,  999.0,    0.1,    0.4,    0.8,    0.8,    0.7,    0.7,    1.1,    2.2,    1.6,    1.9,    2.3,    3.1,    3.5,    3.8,    3.6,    3.8,    3.1,    4.1,    4.6,    4.2,    3.6,    2.7,    3.1,    3.7,    3.8,    3.8,    3.2,    2.3,    2.0,    1.6,    0.9,    0.3,  999.0,   -1.0,   -1.2,   -1.7,   -1.5,   -2.8,   -3.5,   -3.6,   -3.5,   -3.7,   -3.8,   -4.3,   -4.9,   -5.1,  999.0,  999.0,  999.0,  999.0,  999.0,  999.0,   -4.4,   -4.1,   -3.4,   -3.2,   -2.6,   -1.6,   -1.0,   -1.1,   -0.3,   -0.3,    0.8,  999.0,    2.4,  999.0,  999.0,  999.0,  999.0
2007/10/17 08:40,  999.0,    0.2,    0.1,  999.0,   -0.1,   -1.2,   -1.2,   -1.1,   -0.9,  999.0,  999.0,  999.0,    0.2,    0.1,    0.1,    1.2,    2.1,    3.0,    2.4,    2.4,    2.9,    2.9,    3.3,    3.5,    3.6,    3.7,    4.3,    5.1,    4.6,    4.0,  999.0,    2.8,    3.2,    3.5,    3.6,    3.1,    2.6,    1.7,    1.3,    0.4,    0.2,  999.0,   -0.7,   -1.2,  999.0,   -2.5,   -3.2,  999.0,   -3.1,   -3.3,   -3.7,   -3.7,   -4.4,   -4.7,   -5.0,   -4.4,   -4.7,   -5.3,   -6.1,  999.0,  999.0,  999.0,  999.0,  999.0,   -3.5,   -2.8,   -2.6,   -2.1,   -1.3,   -1.5,   -1.9,   -1.8,   -1.3,    0.0,    1.0,    2.7,    3.7,    4.2,    3.9
2007/10/17 08:50,  999.0,    0.3,    0.1,    0.4,    0.2,   -0.7,   -0.9,  999.0,   -0.5,    0.3,  999.0,    0.6,  999.0,    0.4,    0.4,    1.3,    2.2,    2.3,    1.7,    2.4,    2.5,    3.1,  999.0,    3.1,    3.6,    3.6,    4.1,    4.7,    4.1,    3.4,    3.0,    2.7,    3.0,    3.3,    3.0,    2.7,    1.8,    1.2,  999.0,  999.0,    0.2,  999.0,   -0.8,   -1.5,   -1.4,   -2.4,  999.0,  999.0,   -3.2,   -3.9,   -4.2,   -4.7,   -5.3,   -5.6,   -5.4,   -5.1,   -5.1,   -5.1,   -5.8,   -6.0,  999.0,  999.0,  999.0,  999.0,  999.0,  999.0,   -3.3,   -2.9,   -2.3,   -2.1,   -2.2,   -3.1,   -2.7,   -1.6,    0.4,    1.5,    2.2,    2.1,    2.4
2007/10/17 09:00,    0.8,    0.4,    0.5,    1.1,    0.6,    0.0,   -0.6,   -0.7,   -0.5,    0.4,  999.0,    0.4,  999.0,   -0.0,    0.3,    1.0,    1.3,    1.2,    2.2,    2.5,    2.4,    3.2,    3.7,    3.7,    3.4,    3.7,    4.3,  999.0,    3.9,    3.7,    3.2,    3.4,    3.4,    3.4,    3.4,    2.8,    1.7,    0.8,    0.1,    0.5,    0.1,  999.0,   -1.0,   -0.8,  999.0,   -2.3,   -3.4,   -4.1,   -3.9,   -4.0,   -4.4,   -4.6,   -4.9,   -4.6,   -5.0,  999.0,   -4.5,   -4.9,  999.0,   -5.8,   -6.4,   -7.2,  999.0,  999.0,  999.0,  999.0,   -3.6,  999.0,   -3.1,  999.0,   -2.0,   -2.5,   -1.8,   -0.9,    0.5,    1.4,    2.0,    2.2,    2.4
2007/10/17 09:10,    1.1,    0.5,    0.9,    1.2,  999.0,  999.0,   -0.3,   -0.4,   -0.2,    0.3,    0.3,    0.1,    0.1,    0.2,  999.0,    1.0,    1.3,    1.6,    2.1,    2.1,    2.2,    2.9,    3.5,    3.0,    3.2,    3.4,    4.3,    3.0,    4.0,    3.4,    3.3,    3.2,    3.5,    3.3,    3.3,    3.1,    1.9,  999.0,    0.2,   -0.3,   -0.5,   -0.6,  999.0,  999.0,  999.0,  999.0,   -2.7,   -3.2,   -3.4,   -3.5,   -3.7,   -3.7,   -3.9,  999.0,   -3.5,   -4.0,   -4.3,   -4.6,   -5.1,   -5.9,   -5.7,   -6.2,   -6.1,   -5.7,   -6.4,   -6.7,  999.0,   -5.9,   -5.1,   -3.7,   -3.3,   -2.3,   -1.1,   -0.3,    1.0,    2.4,    3.7,    3.1,    2.7
2007/10/17 09:20,  999.0,    1.7,    1.9,    1.7,    1.5,    0.6,   -0.1,  999.0,   -0.0,  999.0,    0.4,    0.3,    0.5,    0.9,    0.8,    0.6,    1.4,  999.0,    2.2,    2.1,    1.9,    2.6,    3.1,    2.4,    2.6,    3.1,    3.4,    3.1,    3.3,    2.7,    2.7,    2.7,    2.8,    2.3,    2.5,    2.6,    1.5,    0.7,    0.6,  999.0,  999.0,  999.0,  999.0,  999.0,  999.0,  999.0,   -2.6,   -3.3,   -3.6,   -3.8,   -3.9,   -3.5,  999.0,   -4.0,   -4.3,   -5.0,   -5.1,   -4.4,   -4.3,   -4.7,   -5.8,   -5.3,   -4.7,   -4.1,   -3.1,   -2.6,   -2.6,   -3.0,   -3.5,   -3.4,   -3.0,   -1.9,   -0.6,    0.7,    1.6,  999.0,    1.7,    1.1,    0.8
2007/10/17 09:30,    1.1,    1.7,    1.7,    2.1,    1.9,  999.0,    0.0,  999.0,   -0.3,   -0.0,    0.3,    0.3,    0.5,    0.5,    0.6,    0.2,    0.8,  999.0,    1.2,    1.3,    1.3,    2.1,    2.1,    2.2,    2.1,    3.1,  999.0,    3.7,    3.8,    3.0,    2.8,    3.0,    3.1,    3.2,    3.2,    3.5,    2.8,    2.1,    1.4,    1.5,    1.5,  999.0,  999.0,  999.0,   -0.3,   -1.6,   -2.4,   -3.1,  999.0,   -4.0,   -4.4,   -3.7,   -3.8,   -3.6,   -3.6,   -3.4,   -3.6,   -3.8,   -4.2,  999.0,   -5.2,  999.0,   -4.9,   -5.0,   -3.9,   -4.0,   -4.0,   -3.6,   -2.6,   -2.3,   -2.0,   -1.9,   -1.4,   -1.3,   -1.1,   -1.8,   -2.2,   -2.1,   -1.7
2007/10/17 09:40,    1.3,    2.5,    1.3,    2.4,    2.1,    1.5,    0.5,    0.5,    0.3,   -0.0,    0.5,    0.3,    0.4,    0.5,    0.5,    0.0,    0.7,    0.6,    0.7,    0.7,    1.0,  999.0,    2.0,    1.5,    1.9,    2.3,    2.3,    2.9,    3.0,    2.1,    2.3,    2.6,    2.8,    3.0,    3.2,    3.2,    3.1,    2.4,    1.9,    1.6,    1.4,  999.0,  999.0,  999.0,   -1.2,   -1.2,   -2.4,   -3.0,   -3.6,   -4.1,   -4.1,   -3.6,   -4.3,   -3.9,   -3.7,   -3.7,  999.0,   -5.1,   -4.8,   -5.2,   -5.1,   -5.0,   -5.6,   -5.8,   -6.3,   -6.4,   -6.1,   -4.1,   -3.0,   -3.0,   -3.3,   -3.9,   -4.2,   -4.1,   -3.1,   -2.1,   -1.3,   -1.0,   -0.9
2007/10/17 09:50,  999.0,    2.1,    1.8,    1.9,    1.7,    1.0,    0.1,    0.3,   -0.0,   -0.5,   -0.2,   -0.4,   -0.3,    0.2,    0.6,    0.1,    0.7,    1.0,    1.6,    1.1,    1.5,    2.3,  999.0,    1.8,    2.1,    2.4,    2.3,    2.9,    2.9,    2.5,    2.3,    3.0,    3.4,    3.5,    3.6,    3.7,    3.4,    2.8,    2.6,    2.3,    2.6,    1.4,  999.0,  999.0,   -0.2,   -0.9,   -2.5,   -3.3,  999.0,  999.0,  999.0,   -4.2,   -4.2,   -4.1,   -4.0,   -4.4,  999.0,   -4.0,   -4.1,   -4.2,   -4.0,   -4.5,   -5.1,   -5.8,   -6.2,   -6.6,   -6.5,   -5.5,   -4.3,   -3.8,   -3.9,   -3.9,   -3.8,   -3.4,   -3.0,   -2.7,   -2.5,   -2.4,   -2.0
2007/10/17 10:00,    1.5,    1.8,    2.3,    2.0,    1.7,    1.1,    0.3,    0.7,    0.5,    0.6,    0.6,    1.0,    0.9,    0.7,    1.4,    1.0,    1.2,    1.4,    1.6,    1.3,    2.2,  999.0,    2.6,    2.0,    2.0,    2.2,    2.4,    2.7,    2.4,    1.8,    2.4,    2.6,    2.7,    3.2,    3.1,    3.4,    2.8,    2.5,  999.0,  999.0,  999.0,    1.9,    0.9,  999.0,  999.0,   -0.6,   -1.9,   -2.6,  999.0,  999.0,  999.0,   -3.8,   -4.4,   -4.6,   -4.9,   -4.8,   -4.3,  999.0,   -3.7,   -3.8,   -4.2,   -4.7,   -5.0,   -6.2,   -6.7,   -7.3,   -7.5,   -7.2,   -6.4,   -5.3,   -4.4,   -4.0,   -3.7,   -3.8,   -3.8,   -3.3,   -2.3,   -1.1,   -0.3
2007/10/17 10:10,    0.7,    3.0,    2.9,    2.7,    2.3,    1.0,  999.0,    1.2,    0.7,    1.4,    1.4,    0.9,    0.8,    1.2,    1.2,    0.9,    1.2,  999.0,    1.6,    1.4,    2.0,  999.0,    2.6,    1.9,    1.6,    1.8,    1.9,    2.1,    1.7,    1.3,    1.2,    1.5,    1.6,    2.3,    2.1,    2.0,    2.1,    2.1,  999.0,  999.0,    1.7,    1.8,  999.0,  999.0,  999.0,  999.0,   -1.7,   -1.5,  999.0,   -1.9,   -2.3,   -2.4,   -2.4,   -1.5,   -0.9,   -1.5,   -2.0,   -3.3,   -3.4,   -4.7,   -5.6,   -6.3,   -7.3,   -7.9,   -7.8,   -7.9,   -7.4,   -7.5,   -6.6,   -5.7,   -4.9,   -4.0,   -3.5,   -3.5,   -2.2,    0.1,    0.5,    1.2,    1.6
2007/10/17 10:20,    2.9,    3.2,    3.2,    3.2,    2.5,    1.3,    1.7,    1.6,    1.4,    2.0,  999.0,    1.0,    1.0,    1.6,    1.2,    0.7,    0.5,    1.0,    0.8,  999.0,  999.0,  999.0,    2.5,    2.1,    1.3,    1.6,    1.7,    1.8,    1.3,    1.3,    1.4,    1.5,    1.7,    2.3,    2.2,    2.3,    2.3,    2.4,  999.0,  999.0,  999.0,  999.0,  999.0,  999.0,    1.7,    0.7,    0.6,  999.0,  999.0,  999.0,   -0.7,   -0.9,   -1.8,   -4.3,   -5.7,   -3.0,   -4.8,   -5.2,   -7.4,   -7.7,   -8.3,   -8.3,   -8.6,   -8.8,   -8.7,   -7.4,   -5.2,   -3.8,   -2.3,   -1.8,   -0.6,    0.2,    0.8,    1.0,    1.1,    1.3,    1.5,    1.6,    1.4
2007/10/17 10:30,    1.4,    1.3,    3.2,    3.2,    2.2,    1.1,    1.2,    1.4,    1.2,    1.7,    2.0,    1.0,    0.9,    1.2,    0.7,  999.0,    0.2,    0.7,    0.4,    0.9,  999.0,    2.6,    2.6,    2.4,    2.1,    2.2,    2.1,    2.1,  999.0,    2.1,    2.3,    2.5,    2.6,    2.4,    1.9,    2.0,    2.0,  999.0,  999.0,    3.4,  999.0,  999.0,  999.0,    3.9,  999.0,  999.0,    1.5,  999.0,    1.2,    0.1,   -0.6,   -2.0,   -4.4,   -5.2,   -6.0,   -6.8,   -7.2,   -8.1,   -8.8,   -9.0,  -10.5,  999.0,  999.0,  -10.4,   -5.7,   -3.3,   -0.9,    0.4,    0.5,    2.4,    2.9,    3.4,    3.4,    3.5,    3.4,    3.1,    2.9,    1.9,    1.2
2007/10/17 10:40,    1.4,    1.8,    2.2,  999.0,    2.9,    1.5,    1.2,    1.2,    1.2,    1.4,    1.8,    1.1,    0.7,    1.1,    1.6,   -0.1,    0.3,    0.7,    0.9,    0.2,  999.0,  999.0,    1.4,    1.1,    1.0,    1.1,    1.5,    2.1,    2.0,    1.9,    2.5,  999.0,    3.2,    2.9,    3.6,    3.7,    3.8,  999.0,  999.0,    2.5,    2.2,  999.0,    0.8,    1.3,    1.8,    2.5,  999.0,    1.2,    0.9,    0.5,    1.1,    1.4,   -0.6,   -1.9,   -3.0,   -3.2,   -3.1,   -4.4,   -5.5,   -4.5,   -4.4,   -5.3,   -4.7,   -4.1,   -2.4,    1.1,    2.4,    3.4,    4.0,    4.7,    4.6,    4.3,    4.1,    3.7,    3.7,    3.5,    3.0,    2.4,    2.2
2007/10/17 10:50,    0.3,    1.6,    3.3,  999.0,    1.6,    1.3,    0.7,  999.0,    0.6,    0.6,    1.1,    0.6,    0.8,    1.0,  999.0,    0.5,    0.3,    0.9,    0.9,    0.7,    1.4,    1.5,    1.9,    1.6,    0.8,    0.8,    1.0,    1.3,    1.5,    0.8,    1.8,    2.2,    2.3,    2.6,    3.1,    3.5,    3.3,    2.9,    1.6,    2.1,    1.8,    2.6,    1.6,    1.5,    1.7,  999.0,  999.0,    1.5,  999.0,    1.2,  999.0,   -3.0,   -2.8,   -2.3,   -2.1,   -3.5,   -3.0,   -2.3,   -2.5,   -1.1,    1.4,    2.9,  999.0,    3.9,    2.9,    3.2,    3.2,    3.2,    3.1,    3.4,    3.5,    3.7,    3.9,    4.0,    4.0,    3.9,    3.8,    3.6,    3.4
2007/10/17 11:00,    0.2,    1.5,    3.0,  999.0,    2.3,    1.8,    1.3,    1.5,    1.2,    1.1,    1.3,    1.8,    1.3,    1.1,    1.4,    1.2,    0.4,  999.0,    0.6,   -0.1,    0.3,  999.0,  999.0,  999.0,  999.0,  999.0,  999.0,  999.0,  999.0,  999.0,  999.0,  999.0,  999.0,    2.2,    2.8,    3.0,    2.8,    2.5,    1.8,    1.1,    0.1,    0.4,    0.0,   -0.6,   -0.2,  999.0,  999.0,  999.0,  999.0,   -3.9,   -4.6,   -5.4,   -4.4,   -4.5,   -5.5,   -4.1,   -2.9,   -2.5,   -2.9,   -2.4,   -0.8,    0.9,    2.2,    2.9,    3.4,    3.5,    3.4,    3.4,    3.4,    3.3,    3.2,    3.1,    3.1,    3.2,    3.1,    3.1,    3.2,    3.3,    3.6
2007/10/17 11:10,    0.1,    0.6,    2.6,    2.9,    2.1,    1.2,    1.0,    1.3,    1.5,    1.7,    1.8,    1.3,    1.4,    1.2,  999.0,    2.2,    1.9,    2.6,    1.8,    0.9,    1.5,    1.5,    1.9,    1.5,    0.8,    0.2,    0.1,   -0.0,   -0.2,   -0.8,   -1.0,   -0.9,   -0.7,   -1.0,   -0.5,   -0.8,   -0.5,   -0.3,   -0.2,   -0.5,   -0.3,   -0.0,    0.3,   -0.2,   -0.5,   -1.4,  999.0,  999.0,  999.0,   -5.3,   -5.2,   -5.5,   -5.7,   -6.6,   -7.7,   -7.8,   -7.5,   -6.0,   -3.2,  999.0,   -0.0,    1.4,    2.5,    2.8,    2.4,    2.2,    2.5,    2.8,    2.7,    2.6,    3.0,    3.4,    3.1,    2.5,    2.1,    1.5,    1.8,    2.2,    2.6
2007/10/17 11:20,    0.4,    2.4,    2.1,  999.0,  999.0,    1.5,    0.9,    1.0,    1.3,    1.4,    0.7,    1.0,    0.6,    1.4,  999.0,  999.0,    1.7,    2.7,    1.2,    1.4,    1.8,    2.4,  999.0,  999.0,    1.7,    0.6,    0.5,    0.3,    0.2,    0.0,   -0.8,   -3.4,   -0.8,   -2.6,    0.2,   -3.7,   -1.4,   -2.9,   -2.7,   -3.3,   -2.6,   -4.2,  999.0,   -2.1,  999.0,  999.0,  999.0,  999.0,  999.0,  999.0,  999.0,  999.0,   -2.6,  999.0,  999.0,  999.0,   -2.5,   -1.4,   -0.0,    1.4,    1.7,    1.6,    0.9,    1.0,    0.5,    0.3,    0.7,    1.7,    1.9,    1.6,    1.1,    1.7,    2.0,    2.2,    2.2,    2.2,    1.9,    2.3,    2.5
2007/10/17 11:30,    1.4,    2.6,    3.8,    3.6,    2.5,    2.3,    2.8,    2.7,    2.7,    2.5,    2.5,  999.0,  999.0,  999.0,  999.0,  999.0,  999.0,  999.0,  999.0,  999.0,  999.0,  999.0,  999.0,  999.0,  999.0,  999.0,  999.0,  999.0,  999.0,  999.0,  999.0,  999.0,  999.0,  999.0,   -0.8,  999.0,  999.0,   -1.1,   -1.0,   -0.3,   -0.0,   -0.2,   -0.8,  999.0,   -2.0,   -2.1,   -2.5,   -2.5,   -2.4,   -2.9,   -2.1,  999.0,  999.0,  999.0,   -3.4,   -3.6,   -3.2,   -2.0,   -1.1,   -1.0,   -1.3,   -1.4,   -1.0,   -0.7,   -0.5,   -0.4,   -0.1,    0.2,    0.6,    1.2,    1.2,    1.0,    0.7,    0.5,    0.2,    0.0,   -0.1,   -0.2,   -0.1
2007/10/17 11:40,    4.9,    2.5,    2.4,  999.0,    0.5,    1.5,    3.2,    3.5,    3.5,    3.0,    3.1,    2.8,    2.8,    2.5,    2.7,    3.5,    3.8,    3.9,    2.5,    2.0,    1.7,    1.4,    1.4,    0.8,    0.6,    0.3,   -0.1,   -0.0,    0.1,   -0.8,   -1.5,   -2.5,   -1.9,   -1.5,   -2.5,   -3.3,   -3.6,   -3.5,   -2.5,   -2.4,   -1.0,   -0.4,   -1.2,   -1.2,   -1.1,   -1.5,   -1.7,  999.0,   -2.0,   -1.3,   -2.9,   -4.6,  999.0,  999.0,   -5.1,   -3.8,   -4.3,   -3.6,   -2.6,   -1.7,   -1.7,   -1.5,   -1.1,   -1.0,   -1.2,   -1.2,   -1.0,   -0.9,   -0.8,   -0.4,    0.3,    1.1,    1.1,    0.8,    0.6,    0.3,    0.0,   -0.1,    0.1
2007/10/17 11:50,   -0.0,   -0.0,    0.3,    0.6,    0.3,   -0.2,   -0.4,    0.6,    1.0,    1.3,    2.2,    2.7,    2.7,    3.3,    3.8,    3.8,    3.7,    4.0,    3.9,    2.6,    2.1,    1.7,    1.8,    1.6,    0.7,    0.0,    0.3,    0.2,   -0.4,   -2.0,   -2.5,   -1.8,  999.0,   -1.8,   -2.9,   -3.8,   -4.3,  999.0,   -2.7,   -1.9,   -1.2,   -0.9,   -0.9,   -1.1,   -1.2,   -1.3,   -2.5,   -2.8,   -3.2,   -3.9,   -4.1,   -5.0,   -5.8,   -5.9,   -5.7,   -6.5,   -6.3,   -5.1,   -4.5,   -4.1,   -4.2,   -3.8,   -2.7,   -1.9,   -1.7,   -1.2,   -0.9,   -0.9,   -0.9,   -0.4,    0.8,    1.6,    1.5,    1.2,    0.9,    0.6,    0.7,    0.7,    0.8
2007/10/17 12:00,   -0.1,   -0.0,   -0.0,   -0.2,    0.2,   -0.2,   -0.0,    0.9,    1.3,    1.9,    2.3,    2.8,    2.9,    3.7,    3.7,    4.2,    3.8,    3.8,    2.8,    2.2,    2.1,    2.3,    2.4,    2.2,    2.1,    1.4,    0.7,    0.2,   -0.8,   -2.1,   -2.5,   -2.1,  999.0,   -2.3,   -2.7,   -3.3,  999.0,   -2.2,  999.0,   -1.6,   -2.0,   -1.8,   -1.6,   -2.1,   -2.1,   -2.3,   -3.2,   -3.4,   -4.7,   -5.8,   -6.3,   -7.1,   -7.3,   -7.4,   -8.2,   -8.2,   -6.5,   -5.6,   -5.6,   -6.1,   -6.2,   -4.8,   -4.1,   -3.0,   -2.7,   -1.9,   -1.5,   -0.9,   -1.0,   -0.6,    0.4,    1.1,    1.1,    0.5,    0.7,    1.0,    1.1,    1.2,    1.3
2007/10/17 12:10,    0.1,   -0.1,    0.1,    0.3,    0.5,    0.4,    0.1,    0.6,    1.3,    1.2,    1.6,    1.9,    2.4,    2.8,    2.9,    3.0,    2.6,    2.5,    2.3,    1.9,    1.6,    1.9,    2.6,    2.2,    1.9,    1.4,    0.9,    0.7,    0.3,   -0.4,   -1.6,   -1.6,   -1.9,   -2.1,   -2.6,   -2.2,   -2.0,   -1.8,   -2.4,   -2.5,   -2.3,   -1.7,   -1.8,   -1.7,   -2.4,   -2.3,   -2.7,   -3.2,   -4.5,   -6.0,   -6.9,   -6.9,   -6.6,   -5.7,   -6.0,   -6.1,   -5.6,   -5.5,  999.0,  999.0,  999.0,  999.0,  999.0,  999.0,  999.0,  999.0,  999.0,  999.0,  999.0,    0.4,    0.9,  999.0,  999.0,  999.0,    0.7,    0.9,    0.7,    0.6,    0.6
2007/10/17 12:20,    0.3,    0.8,    0.4,    0.4,    0.3,    0.0,   -0.0,    0.8,    1.2,    1.2,    1.2,    1.5,    2.4,    2.9,    2.8,    2.6,    2.8,    3.0,    2.8,    2.3,    2.1,    2.1,    2.7,    2.5,    2.1,    1.4,    1.0,    0.6,    0.7,    0.5,   -0.7,   -1.5,   -1.4,   -2.0,   -2.5,   -2.0,   -1.6,   -1.2,   -1.7,   -1.9,   -1.4,   -1.1,   -1.1,   -1.7,   -1.9,   -2.0,   -2.3,   -3.4,   -4.5,   -5.5,   -5.5,   -5.6,   -5.7,   -5.3,   -5.2,   -4.5,   -4.5,  999.0,  999.0,  999.0,  999.0,  999.0,  999.0,  999.0,  999.0,  999.0,  999.0,  999.0,  999.0,  999.0,  999.0,  999.0,  999.0,  999.0,  999.0,  999.0,  999.0,  999.0,  999.0
2007/10/17 12:30,    1.2,    0.7,    0.0,   -0.4,   -0.2,    0.2,    0.5,    1.6,    1.6,    1.5,    1.6,    1.5,    1.6,    2.1,    2.0,    1.9,    2.8,    2.8,    2.2,    2.1,    2.1,    2.1,    2.1,    1.5,    0.7,    0.6,    0.2,    0.5,    0.4,    0.5,   -0.7,   -1.6,   -1.8,   -2.6,   -3.1,   -2.2,   -1.7,   -1.5,   -1.5,   -1.2,  999.0,  999.0,   -0.6,   -1.1,   -1.5,   -1.6,   -2.0,   -2.6,   -3.8,   -3.8,   -3.7,   -2.8,   -2.8,   -3.8,   -3.5,   -2.7,  999.0,  999.0,  999.0,  999.0,  999.0,  999.0,  999.0,  999.0,  999.0,  999.0,  999.0,  999.0,  999.0,  999.0,  999.0,  999.0,  999.0,  999.0,  999.0,  999.0,  999.0,  999.0,  999.0
2007/10/17 12:40,    0.8,    0.7,    0.4,    0.4,    0.5,    0.3,    0.3,    1.7,    0.8,    0.4,    1.3,    0.3,    1.1,    1.8,    1.8,    2.7,    2.6,  999.0,  999.0,    2.1,    1.9,    1.8,    1.5,    1.3,    0.7,    0.6,    0.9,  999.0,    0.5,    0.2,   -1.2,   -1.4,   -1.6,   -2.5,   -2.9,   -2.3,   -1.9,   -1.1,   -0.8,  999.0,  999.0,  999.0,  999.0,  999.0,   -1.6,   -1.2,   -1.8,   -2.8,   -2.8,   -3.6,   -3.7,   -3.5,   -3.2,   -2.7,   -2.2,   -1.7,   -1.1,  999.0,  999.0,   -0.5,  999.0,  999.0,  999.0,  999.0,  999.0,  999.0,  999.0,  999.0,  999.0,  999.0,  999.0,  999.0,  999.0,  999.0,  999.0,  999.0,  999.0,  999.0,  999.0
2007/10/17 12:50,    1.0,    0.6,    0.1,   -0.1,   -0.3,    0.3,    0.5,    0.5,    0.2,    0.3,    1.1,    0.3,    0.9,    1.4,    1.5,    2.8,    2.7,  999.0,  999.0,    2.0,    2.0,    1.9,    1.1,    1.1,    1.1,    1.2,    1.3,    1.4,    0.6,    0.2,   -0.6,   -0.4,   -1.2,   -1.7,   -2.1,  999.0,  999.0,   -1.2,  999.0,  999.0,  999.0,  999.0,   -0.0,   -0.2,   -1.0,   -1.1,   -1.6,   -2.4,   -3.0,   -3.7,   -3.8,   -3.6,   -2.8,   -2.0,   -1.3,   -1.1,   -0.8,  999.0,  999.0,  999.0,  999.0,  999.0,  999.0,  999.0,  999.0,  999.0,  999.0,  999.0,  999.0,  999.0,  999.0,  999.0,  999.0,  999.0,  999.0,  999.0,  999.0,  999.0,  999.0
2007/10/17 13:00,    0.7,    0.9,   -0.4,    0.3,   -0.1,    0.5,    0.3,    0.4,    0.3,    0.3,    2.3,    1.3,    1.0,    1.0,    1.5,    2.6,    3.0,    2.8,    2.7,    2.5,    2.1,    1.3,    1.0,    1.1,    1.2,    1.5,    2.0,  999.0,    1.2,    0.5,    0.0,   -1.0,   -1.2,   -1.4,   -2.1,   -2.3,  999.0,  999.0,   -1.2,   -1.5,   -0.9,   -0.4,  999.0,   -1.2,   -1.4,   -1.7,   -2.0,   -2.9,   -3.4,   -3.5,   -3.1,   -3.0,   -2.5,   -2.0,   -1.1,   -1.0,   -1.3,   -1.6,   -2.1,  999.0,  999.0,  999.0,  999.0,  999.0,  999.0,  999.0,  999.0,  999.0,  999.0,  999.0,  999.0,  999.0,  999.0,  999.0,  999.0,  999.0,  999.0,  999.0,  999.0
2007/10/17 13:10,    0.5,   -0.0,   -0.4,   -0.3,    0.2,    1.0,    0.2,    0.6,    0.3,    1.0,  999.0,    1.1,    1.0,    1.4,    1.3,    2.2,    2.5,    2.4,    2.2,    2.3,    2.3,    1.9,    1.9,    1.5,    1.4,    1.4,    1.3,    1.2,    0.7,    0.9,   -0.0,   -1.2,   -1.7,   -1.8,   -2.1,   -2.2,   -2.1,   -1.7,  999.0,   -1.8,   -1.4,   -0.8,   -1.1,   -1.4,   -1.7,   -1.5,   -2.2,   -2.3,   -2.8,   -3.1,   -3.2,   -2.3,   -2.2,   -2.1,   -1.2,   -1.1,   -1.0,   -1.2,  999.0,  999.0,  999.0,  999.0,  999.0,  999.0,  999.0,  999.0,  999.0,  999.0,  999.0,  999.0,  999.0,  999.0,  999.0,  999.0,  999.0,  999.0,  999.0,  999.0,  999.0
2007/10/17 13:20,   -0.0,   -0.3,   -0.1,   -0.4,   -0.0,    0.8,  999.0,    0.8,    0.4,    1.1,    2.1,    1.6,    0.8,    1.7,    2.3,    2.0,    1.9,    1.9,    1.8,    2.1,    2.3,  999.0,    1.7,    2.1,    1.9,    1.8,    1.1,    0.5,  999.0,    0.6,   -0.1,   -0.9,   -1.8,   -1.4,   -1.8,   -1.7,   -1.9,  999.0,  999.0,  999.0,   -0.7,   -0.7,   -0.9,   -0.9,   -1.2,  999.0,   -2.0,   -2.7,   -3.4,   -3.4,   -3.1,   -2.6,   -2.4,   -2.1,   -1.1,   -1.1,   -1.3,   -1.0,  999.0,    0.3,    0.3,    0.3,    0.9,  999.0,  999.0,  999.0,  999.0,  999.0,  999.0,  999.0,  999.0,  999.0,  999.0,  999.0,  999.0,  999.0,  999.0,  999.0,  999.0
2007/10/17 13:30,    0.4,    0.3,    0.4,   -0.4,  999.0,   -0.1,    0.0,    1.0,    0.4,    0.4,    1.2,    1.3,    0.6,    1.5,    2.1,    1.8,    1.7,    1.5,    1.6,    2.9,    2.7,    2.4,  999.0,  999.0,    2.8,    2.7,    2.6,    0.8,  999.0,  999.0,  999.0,   -1.5,   -2.3,   -2.0,   -2.6,   -3.0,   -2.4,  999.0,  999.0,  999.0,   -1.5,   -1.4,   -1.2,   -1.2,   -1.5,   -1.5,   -2.1,   -2.6,   -3.1,   -3.4,   -3.5,   -3.2,   -2.6,   -2.4,   -1.1,   -1.6,   -1.2,   -1.6,   -1.3,  999.0,   -0.5,   -1.0,   -0.0,    0.7,    1.2,    0.8,  999.0,  999.0,  999.0,  999.0,  999.0,  999.0,  999.0,  999.0,  999.0,  999.0,  999.0,  999.0,  999.0
2007/10/17 13:40,    0.1,    0.0,   -0.1,   -0.8,   -0.6,   -0.1,  999.0,    0.2,   -0.0,    0.7,    1.9,    0.7,    1.4,    2.0,    2.5,    2.2,    1.2,    1.5,    1.3,    2.4,    2.0,    1.5,    2.3,    2.3,    1.4,    1.6,    0.9,    0.6,  999.0,    0.1,   -0.8,   -0.8,   -1.2,   -1.6,   -2.1,   -2.0,  999.0,  999.0,  999.0,  999.0,  999.0,   -1.1,   -0.9,  999.0,   -1.1,   -2.0,   -2.3,   -3.3,   -3.4,   -3.4,   -3.6,   -3.7,   -3.7,   -3.1,  999.0,   -1.1,  999.0,  999.0,   -1.8,   -1.8,   -0.8,   -1.3,   -1.0,   -0.0,    0.7,  999.0,  999.0,  999.0,  999.0,  999.0,  999.0,  999.0,  999.0,  999.0,  999.0,  999.0,  999.0,  999.0,  999.0
2007/10/17 13:50,    0.5,    0.7,    0.1,   -0.6,   -0.8,   -0.2,   -0.1,    0.1,  999.0,    0.3,    1.0,    0.7,    1.5,    2.0,    2.0,    2.3,    2.1,    1.5,    2.1,    2.8,    2.3,    2.4,    2.8,    2.2,    1.7,    0.9,    0.6,    0.8,  999.0,    0.2,   -0.9,   -0.6,   -0.8,   -1.5,   -2.0,  999.0,  999.0,  999.0,  999.0,  999.0,  999.0,   -1.9,  999.0,  999.0,  999.0,   -1.9,   -3.6,   -4.0,   -4.0,   -4.2,   -4.5,   -4.6,   -4.1,   -1.7,   -1.6,   -1.6,   -1.0,   -1.6,   -1.9,   -1.6,   -1.6,   -1.6,   -0.9,    0.1,  999.0,  999.0,  999.0,  999.0,  999.0,  999.0,  999.0,  999.0,  999.0,  999.0,  999.0,  999.0,  999.0,  999.0,  999.0
2007/10/17 14:00,    0.4,   -0.2,   -1.0,   -1.2,   -0.9,   -0.7,  999.0,   -0.1,   -0.1,   -0.1,    0.6,    0.2,    0.7,    1.6,    1.3,    0.9,    0.8,    1.5,    1.7,    2.3,  999.0,    2.1,    1.8,    1.3,    1.3,    1.0,    0.7,  999.0,  999.0,   -0.2,   -0.8,   -0.5,   -0.7,   -1.2,   -1.7,   -1.9,   -1.9,   -2.1,   -2.7,  999.0,  999.0,  999.0,   -1.9,  999.0,   -2.1,   -2.4,   -3.1,   -3.7,   -3.8,   -3.2,   -3.5,   -3.6,   -3.2,   -3.1,   -2.4,  999.0,   -2.2,   -2.2,   -1.6,   -1.7,   -1.4,   -1.5,   -1.4,   -1.0,  999.0,  999.0,  999.0,  999.0,  999.0,  999.0,  999.0,  999.0,  999.0,  999.0,    1.0,  999.0,  999.0,  999.0,  999.0
2007/10/17 14:10,    0.5,    0.7,    0.1,   -0.4,   -0.3,   -0.5,  999.0,  999.0,  999.0,   -0.3,   -0.3,    0.2,    0.2,    0.8,    0.5,    0.8,    1.6,    1.6,    1.3,    1.3,    1.1,  999.0,  999.0,    1.6,    1.6,    0.8,    0.6,    0.5,  999.0,    0.2,   -0.2,   -0.4,   -0.8,   -1.4,   -1.6,   -1.5,   -1.2,   -1.0,   -0.8,   -1.3,   -1.5,   -1.1,   -1.4,   -1.5,   -2.1,   -2.4,   -3.6,   -4.3,   -4.6,   -4.1,   -4.3,   -3.8,   -2.8,   -2.7,  999.0,  999.0,  999.0,  999.0,  999.0,   -1.5,   -1.2,   -0.9,   -0.1,    0.4,  999.0,  999.0,  999.0,  999.0,  999.0,  999.0,  999.0,  999.0,  999.0,  999.0,  999.0,  999.0,  999.0,  999.0,  999.0
2007/10/17 14:20,    1.2,    0.5,    0.1,  999.0,   -0.2,   -0.2,  999.0,  999.0,   -0.8,   -0.3,   -0.1,    0.0,    0.3,    0.6,    0.4,    2.0,    2.0,    2.3,    1.7,    1.9,    1.3,    1.9,    2.3,    2.0,    1.6,    0.8,    0.2,  999.0,    0.3,    0.0,   -0.5,   -0.9,   -0.8,   -1.0,   -1.5,   -1.2,   -1.0,   -0.9,   -1.4,   -2.2,   -2.3,   -1.4,   -1.5,   -1.6,   -2.3,   -2.9,   -3.9,   -3.9,   -3.1,   -3.2,   -3.2,   -2.9,   -2.3,   -2.5,   -2.1,  999.0,  999.0,  999.0,  999.0,   -1.4,   -0.9,   -1.7,  999.0,    1.1,  999.0,  999.0,  999.0,  999.0,  999.0,  999.0,  999.0,  999.0,  999.0,  999.0,  999.0,  999.0,  999.0,  999.0,  999.0
2007/10/17 14:30,    1.1,    0.8,  999.0,    0.1,  999.0,    0.0,  999.0,   -0.3,   -0.3,   -0.5,   -0.0,    0.3,    0.1,    0.2,    0.4,    0.6,    1.7,    1.8,    1.4,    1.3,    0.8,    1.1,  999.0,    1.3,    1.7,    1.3,    0.3,  999.0,  999.0,    0.1,   -0.1,   -0.4,   -0.2,   -0.7,   -1.2,   -1.6,   -0.9,   -0.9,   -1.2,   -2.2,   -1.8,   -1.6,   -1.6,   -2.1,   -2.3,   -2.8,   -3.3,   -3.5,   -3.3,   -3.0,   -2.8,   -2.8,   -3.3,   -2.3,  999.0,  999.0,  999.0,  999.0,  999.0,  999.0,  999.0,   -2.1,  999.0,  999.0,  999.0,  999.0,  999.0,  999.0,  999.0,  999.0,  999.0,  999.0,  999.0,  999.0,  999.0,  999.0,  999.0,  999.0,  999.0
2007/10/17 14:40,    0.7,    1.0,    0.4,    0.3,    0.1,  999.0,  999.0,   -0.3,  999.0,   -0.6,   -0.4,    0.1,    0.0,    0.1,    0.2,    0.8,    1.4,    1.9,    1.7,    1.9,    1.6,    1.3,    1.2,    1.5,    2.0,    1.4,    0.6,    0.5,    0.3,    0.1,    0.1,    0.1,   -0.3,   -1.2,   -1.4,   -0.4,   -0.3,   -0.5,   -0.7,   -1.1,   -0.8,   -1.1,   -1.2,   -2.0,   -2.3,   -2.6,   -2.6,   -2.4,   -3.0,   -3.9,   -3.2,   -1.6,   -0.6,   -0.2,   -0.2,  999.0,   -0.9,  999.0,    0.6,    0.6,   -1.9,  999.0,  999.0,  999.0,  999.0,  999.0,  999.0,  999.0,  999.0,  999.0,  999.0,  999.0,  999.0,  999.0,  999.0,  999.0,  999.0,  999.0,  999.0
2007/10/17 14:50,  999.0,    1.0,    0.2,  999.0,  999.0,  999.0,  999.0,  999.0,  999.0,   -0.2,   -0.6,   -0.1,    0.1,    0.4,    0.4,    1.3,    1.9,    2.8,    3.2,    3.0,    2.3,  999.0,  999.0,  999.0,  999.0,  999.0,  999.0,  999.0,  999.0,  999.0,   -8.0,   -8.3,   -8.5,   -8.0,   -4.9,   -8.2,  999.0,   -8.7,   -9.6,   -9.6,  -10.2,  -10.7,  -10.2,  999.0,  999.0,  999.0,   -9.2,   -7.5,   -4.0,   -3.6,   -3.3,   -3.5,   -3.5,   -2.5,   -2.4,   -3.3,   -2.6,   -1.3,   -1.0,   -2.7,   -2.9,  999.0,  999.0,  999.0,   -0.4,  999.0,  999.0,  999.0,  999.0,  999.0,  999.0,  999.0,  999.0,  999.0,  999.0,  999.0,  999.0,  999.0,  999.0
2007/10/17 15:00,    1.0,    1.0,    0.4,    0.2,    0.2,  999.0,  999.0,   -0.1,  999.0,   -0.8,   -0.5,   -0.3,   -0.0,    0.3,    0.3,    0.4,    1.8,    3.2,  999.0,    2.0,    1.8,  999.0,  999.0,  999.0,  999.0,   -1.0,   -0.6,  999.0,   -2.9,   -0.9,   -1.0,   -1.2,   -0.8,   -0.6,   -0.3,   -0.3,   -0.0,   -0.1,    0.4,   -0.0,   -0.3,   -0.6,   -1.1,   -2.1,   -2.0,   -2.8,   -3.2,   -3.1,   -2.9,   -3.0,   -2.9,   -2.7,   -2.0,   -2.0,   -1.7,  999.0,   -2.1,  999.0,  999.0,   -2.7,   -2.0,   -1.9,  999.0,   -1.3,   -1.5,   -1.5,  999.0,  999.0,  999.0,  999.0,  999.0,  999.0,  999.0,  999.0,  999.0,  999.0,   -1.3,  999.0,  999.0
2007/10/17 15:10,    0.5,  999.0,    0.8,    0.4,    0.2,   -0.0,  999.0,    0.1,  999.0,   -0.4,   -0.0,    0.1,    0.3,    0.2,    0.2,    0.7,    1.8,    2.7,  999.0,    2.2,    1.9,  999.0,    1.5,    1.1,    0.5,    0.5,    0.1,    0.3,    0.0,    0.0,    0.1,    0.4,    0.8,    0.4,    0.3,    0.3,   -0.0,   -0.3,   -0.7,   -1.2,   -1.9,   -2.4,   -2.2,   -2.0,   -2.4,   -1.9,   -1.8,   -2.4,   -2.6,   -3.1,   -2.5,   -2.4,   -2.3,   -2.0,  999.0,  999.0,  999.0,   -2.8,   -2.0,   -1.6,  999.0,  999.0,  999.0,  999.0,  999.0,  999.0,  999.0,  999.0,  999.0,  999.0,  999.0,  999.0,  999.0,  999.0,  999.0,  999.0,  999.0,  999.0,  999.0
2007/10/17 15:20,    1.0,  999.0,    0.6,    0.3,    0.1,   -0.0,   -0.0,    0.0,   -0.4,   -0.5,   -0.3,    0.0,    0.5,    0.4,    0.2,    0.5,    2.0,    2.8,    2.8,    2.3,    2.3,    1.7,    1.8,    1.0,   -0.3,   -0.0,    0.1,    0.2,    0.0,    0.1,    0.3,    0.6,    0.6,    0.2,   -0.2,   -0.3,   -0.6,   -0.8,   -1.3,   -1.7,   -2.3,   -2.0,   -1.9,   -2.4,   -2.0,   -1.6,   -2.0,   -2.5,   -3.2,   -3.2,   -3.4,   -3.7,   -2.8,   -4.1,  999.0,  999.0,   -3.5,   -3.0,   -2.4,  999.0,  999.0,  999.0,  999.0,  999.0,  999.0,  999.0,  999.0,  999.0,  999.0,  999.0,  999.0,  999.0,  999.0,  999.0,  999.0,  999.0,  999.0,  999.0,  999.0
2007/10/17 15:30,    0.8,    0.2,    0.1,    0.1,   -0.4,   -0.4,   -0.4,  999.0,  999.0,  999.0,  999.0,   -0.2,    0.3,    0.5,    0.1,    1.0,    2.6,  999.0,    3.4,    3.0,    3.0,    2.5,    2.1,    1.1,    0.5,    0.6,    0.7,  999.0,    0.7,    0.8,    1.0,    0.9,    0.7,   -0.3,   -0.9,   -1.3,   -1.8,   -1.5,   -0.9,   -1.2,   -1.8,   -2.2,   -2.7,   -3.1,   -2.8,   -2.6,   -3.9,   -4.0,   -3.9,   -4.0,   -3.9,   -3.2,   -3.2,  999.0,  999.0,   -3.1,  999.0,  999.0,  999.0,  999.0,   -1.9,  999.0,  999.0,  999.0,  999.0,  999.0,  999.0,  999.0,  999.0,  999.0,  999.0,  999.0,  999.0,  999.0,  999.0,  999.0,  999.0,  999.0,  999.0
2007/10/17 15:40,    1.0,    0.9,    0.3,   -0.0,   -1.1,   -1.3,   -1.4,   -2.1,   -2.6,  999.0,   -1.4,   -0.3,    0.9,    0.4,    0.1,    0.9,  999.0,    3.8,  999.0,    3.1,    3.2,  999.0,    2.5,    1.8,    0.5,    0.0,    0.2,  999.0,    0.1,    0.4,    1.0,    1.1,    0.1,   -0.8,   -0.8,   -1.9,   -2.2,   -2.3,   -2.0,   -1.9,   -2.0,   -2.3,   -2.5,   -3.0,   -2.8,   -3.4,   -3.7,   -3.7,   -3.9,   -3.5,   -4.1,   -3.4,   -4.0,   -4.4,  999.0,  999.0,  999.0,  999.0,   -3.4,   -2.5,   -2.6,  999.0,  999.0,  999.0,  999.0,  999.0,  999.0,  999.0,  999.0,  999.0,  999.0,  999.0,  999.0,  999.0,  999.0,  999.0,  999.0,  999.0,  999.0
2007/10/17 15:50,    0.2,   -0.8,   -1.0,   -1.4,   -2.1,   -1.8,   -1.3,   -2.3,   -2.1,   -1.8,   -1.3,   -0.2,    0.4,    0.3,    0.8,    2.1,    2.8,    3.6,    3.4,    2.7,    2.6,    2.8,    2.0,    1.3,    0.6,    0.4,    0.4,    0.3,    0.9,    1.4,    2.0,    1.7,    0.8,   -0.1,   -0.9,   -1.4,   -1.5,   -2.2,   -2.1,   -1.7,   -1.9,   -2.3,   -2.7,   -2.9,   -2.7,   -3.3,   -3.7,   -4.1,   -3.7,   -3.4,   -3.3,  999.0,  999.0,   -3.8,   -3.8,  999.0,   -3.9,  999.0,  999.0,   -1.6,   -1.8,   -1.1,  999.0,  999.0,  999.0,  999.0,  999.0,  999.0,  999.0,  999.0,  999.0,  999.0,  999.0,  999.0,  999.0,  999.0,  999.0,  999.0,  999.0
2007/10/17 16:00,    0.5,   -1.5,   -2.1,   -2.9,   -3.4,  999.0,   -3.5,   -3.3,   -2.2,   -2.3,  999.0,  999.0,    0.4,    0.6,    1.6,  999.0,    2.8,    3.5,    3.8,    3.0,    2.9,    3.3,    3.2,    1.7,    1.6,    1.3,    1.4,    1.0,    1.4,    1.5,    1.9,    1.9,    1.1,   -0.2,   -0.5,   -1.4,   -1.8,   -1.8,   -1.5,   -1.3,   -1.4,   -1.7,   -1.8,   -1.8,   -1.7,   -2.3,   -2.8,  999.0,   -2.5,   -2.2,   -3.2,  999.0,   -2.1,   -2.7,  999.0,  999.0,  999.0,  999.0,  999.0,  999.0,  999.0,  999.0,  999.0,  999.0,  999.0,  999.0,  999.0,  999.0,  999.0,  999.0,  999.0,  999.0,  999.0,  999.0,  999.0,  999.0,  999.0,  999.0,  999.0
2007/10/17 16:10,    0.6,   -0.4,   -0.6,   -2.1,   -2.7,   -2.1,   -1.9,   -2.9,  999.0,  999.0,   -1.6,   -0.8,    0.0,  999.0,    2.0,    2.5,    2.6,    2.9,    2.7,    2.5,    2.6,    2.9,    3.2,    1.9,    1.2,    1.5,    0.7,    1.4,    1.8,    1.8,    2.3,    1.8,    0.4,    0.0,   -0.6,   -1.0,   -1.5,   -1.0,   -1.1,   -1.2,   -1.6,   -2.0,   -2.3,   -2.1,   -1.9,   -2.2,   -2.8,  999.0,   -2.5,   -2.4,   -2.6,   -2.7,   -2.4,   -3.0,  999.0,  999.0,  999.0,  999.0,  999.0,  999.0,  999.0,  999.0,  999.0,  999.0,  999.0,  999.0,  999.0,  999.0,  999.0,  999.0,  999.0,  999.0,  999.0,  999.0,  999.0,  999.0,  999.0,  999.0,  999.0
2007/10/17 16:20,    0.2,   -0.4,   -0.4,   -1.3,   -2.2,   -0.7,   -1.4,   -2.2,   -2.3,  999.0,   -1.2,   -0.2,    0.2,  999.0,    2.6,    3.1,    2.7,    3.3,    3.5,    2.8,    3.0,    2.8,    2.8,    2.8,    2.2,    1.3,    1.3,    1.0,    1.2,    1.3,    1.6,    1.8,    0.5,    0.1,    0.1,   -0.1,   -0.2,   -0.2,   -0.6,   -1.4,   -2.2,   -2.1,   -2.3,   -2.4,   -1.9,   -2.8,   -3.3,  999.0,   -2.9,   -2.8,   -3.0,   -2.7,   -3.3,   -3.7,  999.0,  999.0,  999.0,   -2.0,   -1.8,   -1.6,  999.0,  999.0,  999.0,  999.0,  999.0,  999.0,  999.0,  999.0,  999.0,  999.0,  999.0,  999.0,  999.0,  999.0,  999.0,  999.0,  999.0,  999.0,  999.0
2007/10/17 16:30,    0.2,   -0.3,   -0.3,   -0.7,   -1.7,   -1.9,   -2.1,   -2.8,   -2.2,  999.0,  999.0,   -0.0,    1.1,    1.3,    2.5,    3.1,    2.6,    3.5,    3.8,    3.3,    3.2,    2.7,    3.3,    3.4,    2.5,    1.4,    1.3,    0.7,    1.2,    1.1,    1.6,    2.0,    0.9,    0.3,    0.1,    0.2,   -0.3,   -0.6,   -1.1,   -1.3,   -1.8,   -2.0,   -2.0,   -1.5,   -1.7,   -2.2,  999.0,   -2.6,   -2.5,   -2.3,   -3.0,   -2.6,   -2.9,   -3.0,  999.0,  999.0,  999.0,  999.0,   -1.5,  999.0,  999.0,  999.0,  999.0,  999.0,  999.0,  999.0,  999.0,  999.0,  999.0,  999.0,  999.0,  999.0,  999.0,  999.0,  999.0,  999.0,  999.0,  999.0,  999.0
2007/10/17 16:40,    0.4,   -0.4,   -0.4,   -1.9,   -3.6,   -3.1,   -2.0,   -3.2,   -2.2,   -1.3,  999.0,   -0.5,    0.2,    1.2,    2.9,    2.9,    2.6,    3.2,    3.2,    2.9,    2.9,    2.7,    3.0,    2.9,    2.0,    1.3,    0.8,    0.7,  999.0,    1.1,    1.6,    1.8,    0.3,  999.0,   -0.0,   -0.1,   -0.3,   -0.9,   -1.0,   -1.6,   -2.2,   -2.3,   -1.5,   -1.6,   -1.9,   -2.0,   -2.7,  999.0,   -2.9,   -2.8,   -3.2,  999.0,  999.0,   -3.2,  999.0,  999.0,  999.0,  999.0,  999.0,  999.0,   -2.6,  999.0,  999.0,  999.0,  999.0,  999.0,  999.0,  999.0,  999.0,  999.0,  999.0,  999.0,  999.0,  999.0,  999.0,  999.0,  999.0,  999.0,  999.0
2007/10/17 16:50,    0.3,    0.0,   -0.1,   -0.9,   -2.8,  999.0,   -1.9,   -2.3,   -2.0,   -1.5,  999.0,    0.1,    0.8,    1.2,    2.9,    2.4,    2.8,    3.1,    3.1,    2.6,    2.7,    2.4,    3.3,    2.3,    1.3,    1.0,    1.1,    0.8,    0.8,    0.9,    1.3,    0.7,   -0.1,   -0.4,   -0.4,   -0.4,   -0.5,   -0.6,   -1.0,   -1.2,   -1.6,   -1.9,   -1.6,   -1.2,   -1.6,   -2.2,   -2.7,   -2.6,   -2.7,   -3.1,   -3.4,   -2.9,  999.0,  999.0,  999.0,  999.0,  999.0,  999.0,   -2.1,   -1.6,   -1.6,   -1.2,   -1.1,  999.0,  999.0,  999.0,  999.0,  999.0,  999.0,  999.0,  999.0,  999.0,  999.0,  999.0,  999.0,  999.0,  999.0,  999.0,  999.0
2007/10/17 17:00,    0.3,    0.1,   -0.1,   -0.7,   -2.1,   -2.3,   -1.5,  999.0,  999.0,   -1.7,  999.0,  999.0,    0.5,    1.3,    3.5,    3.1,    3.3,    3.2,    3.4,    3.0,    3.0,    2.6,    3.1,    2.4,    1.4,    0.5,    0.6,    0.4,    0.2,    0.5,    0.5,   -0.8,   -0.4,   -0.8,   -0.9,   -0.7,   -0.3,   -1.0,   -0.8,   -1.0,   -1.4,   -2.1,   -2.2,   -1.9,   -1.8,   -2.4,   -3.1,   -3.2,   -3.2,   -3.0,   -3.0,   -2.7,   -2.7,   -2.9,   -3.3,   -3.3,  999.0,  999.0,   -2.2,  999.0,   -1.8,   -1.7,   -1.0,  999.0,  999.0,  999.0,  999.0,  999.0,  999.0,  999.0,  999.0,  999.0,  999.0,  999.0,  999.0,  999.0,  999.0,  999.0,  999.0
2007/10/17 17:10,    1.4,    0.8,   -0.4,   -1.2,   -1.9,   -1.4,   -2.2,  999.0,  999.0,   -0.6,   -0.1,    0.7,    1.8,  999.0,  999.0,    2.7,    2.2,    2.4,    3.4,    3.3,    3.1,    3.1,    3.3,    2.1,    1.3,    0.2,  999.0,    0.4,    0.3,    0.3,    0.1,   -0.3,   -1.1,   -1.4,   -1.5,   -1.2,   -1.4,   -1.1,   -0.6,   -0.8,   -1.2,   -1.3,   -1.5,   -1.4,   -1.6,   -1.6,   -2.3,   -2.3,   -2.0,   -1.9,   -1.8,   -2.3,   -2.3,   -2.5,   -3.0,   -3.0,   -2.9,   -2.8,   -2.4,   -2.0,   -1.6,  999.0,  999.0,  999.0,  999.0,  999.0,  999.0,  999.0,  999.0,  999.0,  999.0,  999.0,  999.0,  999.0,  999.0,  999.0,  999.0,  999.0,  999.0
2007/10/17 17:20,    1.5,    1.1,    0.2,   -0.7,   -1.3,   -1.3,   -1.0,   -0.9,   -1.3,   -0.8,  999.0,    2.2,    2.5,  999.0,    4.1,    3.6,    3.1,    2.8,    3.6,    3.4,    2.7,    2.6,    2.1,    1.2,    0.5,    0.3,    0.6,    0.5,    0.5,    0.4,    0.4,   -0.3,   -0.7,   -1.0,   -1.0,   -0.9,   -0.7,   -0.7,   -0.2,   -0.5,   -1.1,   -1.6,   -1.8,   -1.7,   -1.7,   -1.9,   -2.3,   -2.5,   -2.4,   -2.4,   -2.7,   -3.1,   -2.9,   -2.8,  999.0,  999.0,  999.0,  999.0,  999.0,  999.0,   -2.4,  999.0,  999.0,  999.0,  999.0,  999.0,  999.0,  999.0,  999.0,  999.0,  999.0,  999.0,  999.0,  999.0,  999.0,  999.0,  999.0,  999.0,  999.0
2007/10/17 17:30,    0.8,  999.0,    0.2,   -0.4,   -0.9,   -0.9,   -0.4,   -0.1,   -0.1,   -0.3,    1.3,    1.4,    2.8,    4.0,    4.3,    3.4,    3.2,    3.7,  999.0,    3.5,    3.5,    3.0,    2.6,    1.4,  999.0,    0.6,   -0.0,    0.0,   -0.3,   -0.2,   -0.7,   -1.3,   -1.0,   -0.8,   -0.7,   -0.5,   -0.6,   -0.4,    0.1,   -0.3,   -0.8,   -1.4,   -1.7,   -1.6,   -1.2,   -1.3,   -1.4,   -1.9,   -2.1,   -2.1,   -2.0,   -2.0,   -2.5,   -2.1,  999.0,  999.0,  999.0,  999.0,  999.0,  999.0,  999.0,  999.0,  999.0,  999.0,  999.0,  999.0,  999.0,  999.0,  999.0,  999.0,  999.0,  999.0,  999.0,  999.0,  999.0,  999.0,  999.0,  999.0,  999.0
2007/10/17 17:40,    1.1,  999.0,    0.2,   -0.0,    0.1,   -0.2,   -0.4,   -0.4,    0.0,    0.5,    1.6,    1.9,    2.6,    3.8,  999.0,    3.3,    3.3,    3.9,    3.5,  999.0,  999.0,    2.7,    2.4,    1.1,   -0.1,   -0.2,  999.0,   -0.3,   -0.1,   -0.1,    0.0,   -0.6,   -1.1,  999.0,   -0.3,   -0.3,   -0.6,   -0.6,   -0.7,   -0.8,   -1.3,   -1.7,   -2.0,   -1.6,   -1.2,   -0.9,   -1.4,   -1.7,   -2.0,   -1.2,   -2.0,  999.0,   -2.1,   -2.2,  999.0,  999.0,  999.0,  999.0,  999.0,  999.0,  999.0,  999.0,  999.0,  999.0,  999.0,  999.0,  999.0,  999.0,  999.0,  999.0,  999.0,  999.0,  999.0,  999.0,  999.0,  999.0,  999.0,  999.0,  999.0
2007/10/17 17:50,    0.5,    0.2,    0.2,    0.2,    0.1,   -0.1,    0.6,    1.1,    0.6,  999.0,  999.0,    2.8,    3.5,    3.4,    3.7,    3.6,    4.3,    3.7,    3.5,    3.4,    3.2,    2.4,    2.0,    1.1,    0.5,    0.6,    1.0,  999.0,    1.1,    0.8,    0.7,    0.4,    0.0,    0.4,    1.0,    0.5,    0.1,   -0.6,   -0.3,   -0.6,   -1.2,   -1.9,   -2.5,   -2.2,   -1.6,   -1.1,   -1.4,   -1.6,   -1.9,  999.0,  999.0,   -2.1,   -2.3,   -2.1,  999.0,  999.0,  999.0,  999.0,  999.0,  999.0,   -2.5,  999.0,  999.0,  999.0,  999.0,  999.0,  999.0,  999.0,  999.0,  999.0,  999.0,  999.0,  999.0,  999.0,  999.0,  999.0,  999.0,  999.0,  999.0
2007/10/17 18:00,  999.0,    0.2,   -0.3,   -0.4,   -0.2,   -0.6,    0.1,    0.1,    0.6,    1.7,    1.5,    2.6,    3.8,    3.9,    3.0,    3.0,    4.0,    3.9,    3.5,    3.0,    2.8,    2.5,    1.7,    0.8,    0.1,    0.5,    0.9,    0.8,    0.9,    0.9,    0.6,    0.3,    0.4,    0.4,    0.6,    0.2,   -0.4,   -1.0,   -0.9,   -1.3,   -2.0,  999.0,   -2.6,   -2.3,   -1.2,   -1.5,   -1.2,   -1.7,   -2.1,  999.0,  999.0,  999.0,   -3.0,  999.0,  999.0,  999.0,  999.0,  999.0,  999.0,  999.0,   -1.8,   -2.1,  999.0,  999.0,  999.0,  999.0,  999.0,  999.0,  999.0,  999.0,  999.0,  999.0,  999.0,  999.0,  999.0,  999.0,  999.0,  999.0,  999.0
2007/10/17 18:10,  999.0,  999.0,   -0.0,    0.2,   -0.2,    0.2,  999.0,    0.1,    0.4,    1.2,    1.7,    2.5,    3.3,    3.9,    3.8,    3.3,    3.9,    4.6,    4.3,    3.3,    2.6,    2.0,    1.7,    0.9,    0.7,    0.3,    0.8,    1.1,    1.2,    0.9,    1.1,    0.6,    0.6,    0.6,    0.9,   -0.0,   -0.7,   -0.8,   -0.9,   -1.4,   -1.9,  999.0,  999.0,   -2.0,   -1.5,   -1.9,   -1.7,   -2.0,   -2.1,  999.0,  999.0,  999.0,  999.0,  999.0,  999.0,  999.0,  999.0,  999.0,  999.0,  999.0,  999.0,  999.0,  999.0,  999.0,  999.0,  999.0,  999.0,  999.0,  999.0,  999.0,  999.0,  999.0,  999.0,  999.0,  999.0,  999.0,  999.0,  999.0,  999.0
2007/10/17 18:20,  999.0,  999.0,   -0.2,   -0.1,   -0.1,   -0.3,  999.0,   -0.3,   -0.1,    0.9,    1.4,    2.4,    2.0,    3.0,    3.6,    3.4,    4.0,    4.4,    4.2,    3.5,    3.1,    2.5,    2.0,    1.6,    0.4,    0.4,    0.6,    1.2,    1.5,    1.5,    1.5,    1.1,    0.8,    1.3,    1.0,    0.8,  999.0,   -0.2,   -0.3,  999.0,  999.0,   -1.2,  999.0,   -1.3,  999.0,   -1.2,   -1.1,   -1.9,  999.0,  999.0,  999.0,  999.0,  999.0,  999.0,  999.0,  999.0,  999.0,  999.0,  999.0,  999.0,  999.0,   -2.3,  999.0,  999.0,  999.0,  999.0,  999.0,  999.0,  999.0,  999.0,  999.0,  999.0,  999.0,  999.0,  999.0,  999.0,  999.0,  999.0,  999.0
2007/10/17 18:30,    0.7,   -0.1,   -0.4,   -0.0,  999.0,    0.2,    0.5,    0.1,   -0.0,    0.5,    1.4,    2.1,  999.0,    2.8,    3.6,    4.0,    4.5,    4.7,    4.7,    4.5,    3.7,    3.8,    2.8,    2.1,  999.0,    0.4,    1.2,    1.6,    1.9,    1.7,    1.5,    1.2,    1.0,    0.8,    0.7,    0.4,  999.0,   -0.3,  999.0,   -0.3,  999.0,   -1.6,   -1.9,   -1.5,   -1.3,   -0.5,   -1.9,   -2.2,  999.0,  999.0,  999.0,  999.0,  999.0,  999.0,  999.0,  999.0,  999.0,  999.0,  999.0,  999.0,  999.0,   -2.2,   -2.1,   -2.2,  999.0,  999.0,  999.0,  999.0,  999.0,  999.0,  999.0,  999.0,  999.0,  999.0,  999.0,  999.0,  999.0,  999.0,  999.0
2007/10/17 18:40,  999.0,    0.4,  999.0,   -0.2,    0.1,    0.5,    0.4,    0.4,    0.5,    0.9,    1.5,  999.0,    3.4,    2.8,    3.7,    4.6,    4.9,    4.9,    5.1,    3.8,    3.8,    3.4,    2.3,  999.0,  999.0,  999.0,    0.9,    1.5,    1.5,    1.5,    1.4,    1.1,    1.2,    0.9,    0.7,  999.0,    0.2,    0.2,  999.0,  999.0,  999.0,   -1.6,   -1.6,   -1.4,   -0.6,   -1.0,   -1.7,   -2.2,  999.0,  999.0,  999.0,  999.0,   -3.5,  999.0,  999.0,  999.0,  999.0,  999.0,  999.0,  999.0,  999.0,  999.0,   -3.3,  999.0,  999.0,  999.0,  999.0,  999.0,  999.0,  999.0,  999.0,  999.0,  999.0,  999.0,  999.0,  999.0,  999.0,  999.0,  999.0
2007/10/17 18:50,    0.4,  999.0,  999.0,   -0.4,    0.6,    0.2,    0.3,    0.3,    0.5,    0.7,    1.3,    1.8,    2.8,    2.7,    2.9,    4.0,    4.8,    4.5,    4.9,    3.2,    3.2,    2.7,    1.4,    0.8,  999.0,   -0.5,    0.0,    0.6,    1.0,    1.1,    0.9,    0.7,    0.6,    0.5,  999.0,  999.0,    0.7,    0.4,  999.0,  999.0,   -0.7,   -1.4,   -1.5,   -1.0,  999.0,   -0.8,   -1.5,   -1.8,  999.0,  999.0,  999.0,   -2.6,   -2.4,  999.0,  999.0,  999.0,  999.0,  999.0,  999.0,  999.0,  999.0,   -3.2,   -3.2,  999.0,  999.0,  999.0,  999.0,  999.0,  999.0,  999.0,  999.0,  999.0,  999.0,  999.0,  999.0,  999.0,  999.0,  999.0,  999.0
2007/10/17 19:00,  999.0,  999.0,  999.0,    0.5,    0.3,    0.3,    0.4,   -0.4,   -0.0,    0.4,    1.0,    2.1,    3.0,    3.1,    3.3,    4.4,    5.0,    4.9,    5.0,    4.3,    3.9,    3.6,    2.9,    2.7,    0.9,    0.3,    1.0,    1.7,    1.7,    1.5,    1.2,    0.6,    0.4,    0.4,  999.0,  999.0,  999.0,    0.0,  999.0,  999.0,   -1.0,   -1.5,   -1.8,   -1.2,   -0.9,  999.0,   -2.0,   -2.5,  999.0,  999.0,  999.0,  999.0,  999.0,  999.0,  999.0,  999.0,  999.0,  999.0,  999.0,  999.0,   -3.1,   -3.1,  999.0,  999.0,  999.0,  999.0,  999.0,  999.0,  999.0,  999.0,  999.0,  999.0,  999.0,  999.0,  999.0,  999.0,  999.0,  999.0,  999.0
2007/10/17 19:10,  999.0,  999.0,    0.3,    0.6,   -1.0,    0.1,   -0.2,   -0.2,  999.0,    0.3,  999.0,    2.1,    3.1,    3.1,    2.9,    4.1,    4.7,    3.8,    4.0,    3.5,  999.0,    2.7,    2.6,    2.3,    0.1,   -0.0,    0.9,    1.6,    1.2,    1.1,    0.8,    0.6,    0.6,  999.0,  999.0,    0.6,    0.2,  999.0,  999.0,  999.0,   -0.5,   -1.1,   -1.7,  999.0,   -0.7,  999.0,  999.0,   -1.7,  999.0,  999.0,  999.0,  999.0,  999.0,  999.0,  999.0,  999.0,  999.0,  999.0,  999.0,  999.0,  999.0,   -2.8,  999.0,  999.0,  999.0,  999.0,  999.0,  999.0,  999.0,  999.0,  999.0,  999.0,  999.0,  999.0,  999.0,  999.0,  999.0,  999.0,  999.0
2007/10/17 19:20,  999.0,    0.3,    0.2,    0.1,   -0.9,   -0.2,   -0.2,   -0.0,    0.1,  999.0,  999.0,    3.0,    3.6,    2.9,    3.1,    3.9,    4.1,    3.3,    3.2,    3.3,    3.9,    2.8,    2.5,    2.5,    0.4,    0.4,    1.6,    1.8,    2.0,    2.2,    2.0,    1.7,    1.6,    1.9,    1.4,    1.4,    1.4,  999.0,  999.0,  999.0,  999.0,  999.0,  999.0,  999.0,  999.0,  999.0,  999.0,  999.0,  999.0,  999.0,  999.0,  999.0,  999.0,  999.0,  999.0,  999.0,  999.0,  999.0,  999.0,  999.0,  999.0,   -2.7,   -2.3,  999.0,  999.0,  999.0,  999.0,  999.0,  999.0,  999.0,  999.0,  999.0,  999.0,  999.0,  999.0,  999.0,  999.0,  999.0,  999.0
2007/10/17 19:30,  999.0,  999.0,    0.6,   -0.9,   -0.3,   -0.0,   -0.1,   -0.2,    0.3,    0.7,    2.9,    3.4,    3.7,    3.2,    3.5,    4.1,    4.2,    3.6,    3.4,    3.9,    4.5,    4.2,    3.3,    2.5,    1.2,  999.0,    1.6,    1.7,    1.5,    2.0,    1.6,    1.0,    1.2,    0.9,    0.6,    0.4,    0.3,  999.0,  999.0,  999.0,  999.0,  999.0,   -0.8,  999.0,  999.0,  999.0,   -1.3,   -1.3,  999.0,  999.0,  999.0,  999.0,  999.0,  999.0,  999.0,  999.0,  999.0,  999.0,  999.0,  999.0,  999.0,  999.0,   -2.3,  999.0,  999.0,  999.0,  999.0,  999.0,  999.0,  999.0,  999.0,  999.0,  999.0,  999.0,  999.0,  999.0,  999.0,  999.0,  999.0
2007/10/17 19:40,  999.0,  999.0,   -0.0,   -0.8,   -0.1,   -0.1,    0.1,    0.2,    0.2,    0.5,    2.1,    3.0,    3.1,    3.1,    3.2,    3.5,    3.7,    3.2,    3.4,    3.7,    4.2,  999.0,    3.8,    2.1,    0.7,    0.2,  999.0,  999.0,    1.1,    1.5,    1.7,    1.2,    1.4,    1.0,    0.5,    0.6,    0.6,  999.0,  999.0,  999.0,  999.0,  999.0,  999.0,  999.0,  999.0,  999.0,   -0.9,   -0.6,  999.0,  999.0,  999.0,  999.0,  999.0,  999.0,  999.0,  999.0,  999.0,  999.0,  999.0,  999.0,  999.0,   -2.0,  999.0,  999.0,  999.0,  999.0,  999.0,  999.0,  999.0,  999.0,  999.0,  999.0,  999.0,  999.0,  999.0,  999.0,  999.0,  999.0,  999.0
2007/10/17 19:50,  999.0,  999.0,  999.0,   -0.5,  999.0,    0.4,   -0.3,   -0.2,   -0.1,    0.5,    1.7,    2.9,    3.1,    2.9,    3.1,    3.3,    3.3,    3.4,    3.9,    4.8,    5.5,    5.5,    4.7,    2.7,    2.2,  999.0,  999.0,    1.0,    1.1,    1.5,    2.0,    1.0,    1.4,    1.4,  999.0,    0.6,  999.0,  999.0,  999.0,  999.0,  999.0,  999.0,  999.0,    0.4,   -0.8,   -1.3,  999.0,   -1.3,  999.0,  999.0,  999.0,   -2.4,  999.0,  999.0,  999.0,  999.0,  999.0,  999.0,  999.0,  999.0,  999.0,  999.0,  999.0,  999.0,  999.0,  999.0,  999.0,  999.0,  999.0,  999.0,  999.0,  999.0,  999.0,  999.0,  999.0,  999.0,  999.0,  999.0,  999.0
2007/10/17 20:00,  999.0,    0.2,    0.2,    0.4,    0.1,   -0.2,   -0.6,   -0.7,  999.0,    0.1,    2.1,    3.1,    2.7,    3.1,    3.2,    3.1,    3.4,    4.0,    4.6,    5.8,    6.1,    5.9,    4.2,    3.0,  999.0,  999.0,    0.5,    0.7,    0.7,    1.2,    1.4,    0.5,    0.9,    1.2,  999.0,    0.5,    0.5,  999.0,   -0.1,  999.0,  999.0,   -0.6,   -0.6,  999.0,   -0.1,  999.0,   -1.1,   -1.1,  999.0,   -2.4,   -2.6,  999.0,  999.0,  999.0,  999.0,  999.0,  999.0,  999.0,  999.0,  999.0,  999.0,  999.0,  999.0,  999.0,  999.0,  999.0,  999.0,  999.0,  999.0,  999.0,  999.0,  999.0,  999.0,  999.0,  999.0,  999.0,  999.0,  999.0,  999.0
2007/10/17 20:10,   -0.0,    0.1,    0.1,    0.3,    0.3,   -0.1,   -0.1,  999.0,  999.0,  999.0,    2.7,    3.0,    2.4,    2.9,    2.9,    3.1,    3.2,    3.7,    4.6,    5.2,    5.8,    5.8,    4.2,    3.6,    2.2,    0.9,    0.1,    1.0,    0.6,    1.2,    1.3,    0.4,    0.3,    0.5,   -0.4,   -0.8,   -0.5,   -0.8,   -0.4,  999.0,  999.0,   -1.0,   -0.3,  999.0,  999.0,   -0.7,  999.0,  999.0,  999.0,   -1.8,  999.0,  999.0,   -2.5,  999.0,  999.0,  999.0,  999.0,  999.0,  999.0,  999.0,  999.0,  999.0,  999.0,  999.0,  999.0,  999.0,  999.0,  999.0,  999.0,  999.0,  999.0,  999.0,  999.0,  999.0,  999.0,  999.0,  999.0,  999.0,  999.0
2007/10/17 20:20,    0.1,    0.3,    0.4,    0.6,   -0.1,   -0.4,   -0.2,   -0.4,    0.2,    1.3,    2.5,    2.6,    2.3,    2.6,    2.7,    2.7,    3.0,    3.3,    3.8,    5.4,    5.6,    5.5,  999.0,    3.8,    2.7,  999.0,    0.5,    1.0,    0.9,    1.7,    1.7,    1.0,    1.0,    0.5,   -0.3,   -0.3,   -0.3,   -0.5,   -0.4,  999.0,  999.0,   -0.7,  999.0,   -0.1,   -1.3,   -1.5,  999.0,  999.0,  999.0,  999.0,  999.0,  999.0,  999.0,  999.0,  999.0,  999.0,  999.0,  999.0,  999.0,  999.0,  999.0,  999.0,  999.0,  999.0,  999.0,  999.0,  999.0,  999.0,  999.0,  999.0,  999.0,  999.0,  999.0,  999.0,  999.0,  999.0,  999.0,  999.0,  999.0
2007/10/17 20:30,   -0.1,    0.3,    0.0,    0.6,   -0.1,   -0.2,   -0.2,  999.0,    0.3,    1.3,    2.4,    2.3,    2.0,    2.4,    2.3,    2.7,    2.9,    3.1,    4.0,    5.1,    5.0,    5.4,    4.2,    3.5,    2.7,    0.8,    0.6,    0.7,    1.1,    1.9,    1.5,    1.3,  999.0,    0.1,  999.0,  999.0,  999.0,  999.0,  999.0,  999.0,  999.0,   -1.2,  999.0,   -0.5,   -1.0,  999.0,  999.0,  999.0,  999.0,  999.0,  999.0,  999.0,  999.0,  999.0,  999.0,  999.0,  999.0,  999.0,  999.0,  999.0,   -2.4,  999.0,  999.0,  999.0,  999.0,  999.0,  999.0,  999.0,  999.0,  999.0,  999.0,  999.0,  999.0,  999.0,  999.0,  999.0,  999.0,  999.0,  999.0
2007/10/17 20:40,    0.1,    0.0,    0.3,    0.3,   -0.1,   -0.6,   -0.1,   -0.0,    0.7,    1.6,    2.1,    1.9,    1.6,    1.7,    1.6,    2.2,    2.3,    3.5,    4.4,    4.8,    5.0,    4.9,    2.5,    2.8,    1.4,    1.0,    0.3,    1.1,    1.2,    2.6,    2.1,    1.7,    0.7,  999.0,  999.0,   -0.3,  999.0,  999.0,  999.0,  999.0,  999.0,  999.0,    0.2,  999.0,  999.0,  999.0,  999.0,  999.0,  999.0,  999.0,  999.0,  999.0,  999.0,  999.0,  999.0,  999.0,  999.0,  999.0,  999.0,  999.0,  999.0,  999.0,  999.0,  999.0,  999.0,  999.0,  999.0,  999.0,  999.0,  999.0,  999.0,  999.0,  999.0,  999.0,  999.0,  999.0,  999.0,  999.0,  999.0
2007/10/17 20:50,  999.0,    0.1,    0.1,   -0.1,   -0.4,   -0.5,   -0.2,   -0.2,    0.1,    1.0,    1.5,    1.5,    1.3,    1.2,    1.6,    2.0,    2.6,    4.2,    4.7,    5.1,    5.5,    4.6,    3.4,    2.8,    1.1,    0.8,    1.3,    1.7,    1.9,    2.7,    2.5,    2.0,    1.4,  999.0,  999.0,  999.0,   -0.0,    0.2,  999.0,    0.3,  999.0,  999.0,    0.7,    0.6,  999.0,  999.0,  999.0,  999.0,  999.0,  999.0,  999.0,  999.0,  999.0,  999.0,  999.0,  999.0,  999.0,  999.0,  999.0,  999.0,  999.0,  999.0,  999.0,  999.0,  999.0,  999.0,  999.0,  999.0,  999.0,  999.0,  999.0,  999.0,  999.0,  999.0,  999.0,  999.0,  999.0,  999.0,  999.0
2007/10/17 21:00,   -0.1,    0.1,    0.1,  999.0,   -0.4,   -0.6,  999.0,   -0.3,    0.4,    0.8,    1.3,    1.5,    1.2,    1.2,    1.3,    1.0,    2.2,    3.2,    4.2,    4.5,    4.9,    4.5,    2.9,    2.0,    0.6,    0.1,    0.4,    0.5,    0.9,    1.7,    1.5,    1.0,    0.7,    0.5,  999.0,  999.0,  999.0,  999.0,  999.0,  999.0,  999.0,  999.0,  999.0,   -0.2,  999.0,  999.0,  999.0,  999.0,  999.0,  999.0,  999.0,  999.0,  999.0,  999.0,  999.0,  999.0,  999.0,  999.0,  999.0,  999.0,  999.0,  999.0,  999.0,  999.0,  999.0,  999.0,  999.0,  999.0,  999.0,  999.0,  999.0,  999.0,  999.0,  999.0,  999.0,  999.0,  999.0,  999.0,  999.0
2007/10/17 21:10,    0.2,   -0.0,  999.0,    0.0,   -0.1,   -0.5,  999.0,  999.0,    0.3,    0.9,    1.0,    1.6,    1.6,    1.2,    1.2,    1.2,    1.8,    2.7,    3.6,    3.8,    4.5,    5.1,    3.1,    2.2,    0.4,   -0.1,    0.2,    0.7,    1.3,    1.5,    1.4,    0.6,    0.6,  999.0,  999.0,  999.0,  999.0,  999.0,  999.0,  999.0,  999.0,  999.0,    0.6,   -0.0,   -0.4,   -0.6,  999.0,  999.0,  999.0,  999.0,  999.0,  999.0,  999.0,  999.0,  999.0,  999.0,  999.0,  999.0,  999.0,  999.0,  999.0,  999.0,  999.0,  999.0,  999.0,  999.0,  999.0,  999.0,  999.0,  999.0,  999.0,  999.0,  999.0,  999.0,  999.0,  999.0,  999.0,  999.0,  999.0
2007/10/17 21:20,   -0.4,   -0.1,    0.1,   -0.1,   -0.4,   -0.2,   -0.1,   -0.2,    0.2,    0.4,    0.4,    1.1,    0.9,    0.9,    0.9,    0.9,    1.2,    2.6,    3.3,    3.7,    4.4,    4.4,    3.1,  999.0,   -0.0,    0.2,    0.7,    0.9,    0.9,    1.2,    0.8,    1.0,    0.6,    0.4,    0.5,   -0.0,  999.0,   -0.3,  999.0,  999.0,  999.0,   -0.1,    0.9,    0.3,    0.4,   -0.0,  999.0,  999.0,  999.0,  999.0,  999.0,   -1.2,  999.0,  999.0,  999.0,  999.0,  999.0,  999.0,  999.0,  999.0,  999.0,  999.0,  999.0,  999.0,  999.0,  999.0,  999.0,  999.0,  999.0,  999.0,  999.0,  999.0,  999.0,  999.0,  999.0,  999.0,  999.0,  999.0,  999.0
2007/10/17 21:30,   -1.3,   -1.2,   -0.2,    0.1,   -0.3,   -0.5,   -0.2,   -0.3,   -0.0,    0.4,    0.7,    1.1,    0.8,    0.8,    0.9,    0.8,    1.1,    2.5,    3.4,    4.0,    4.3,    4.2,    3.1,    1.1,   -0.2,    0.4,    0.7,    1.2,    0.7,    1.3,    0.6,    0.7,  999.0,    0.7,    0.3,  999.0,    0.2,    0.4,  999.0,  999.0,  999.0,  999.0,    2.3,    1.4,    0.7,  999.0,  999.0,  999.0,  999.0,  999.0,  999.0,  999.0,  999.0,  999.0,  999.0,  999.0,  999.0,  999.0,  999.0,  999.0,  999.0,  999.0,  999.0,  999.0,  999.0,  999.0,  999.0,  999.0,  999.0,  999.0,  999.0,  999.0,  999.0,  999.0,  999.0,  999.0,  999.0,  999.0,  999.0
2007/10/17 21:40,   -1.2,   -1.4,   -0.1,   -0.1,    0.1,   -0.4,   -0.2,   -0.9,    0.1,   -0.0,    0.3,    0.6,    0.6,    0.6,    0.8,  999.0,    1.0,    2.7,    3.3,    4.3,    4.5,    3.2,    3.1,    0.3,    0.3,    1.1,    1.6,    1.1,    1.8,    1.8,    1.3,    1.6,    1.6,    1.4,  999.0,  999.0,  999.0,    0.7,  999.0,  999.0,  999.0,  999.0,    2.3,    2.0,    1.3,    0.9,    0.4,  999.0,  999.0,  999.0,  999.0,  999.0,  999.0,  999.0,  999.0,  999.0,  999.0,  999.0,  999.0,  999.0,  999.0,  999.0,  999.0,  999.0,  999.0,  999.0,  999.0,  999.0,  999.0,  999.0,  999.0,  999.0,  999.0,  999.0,  999.0,  999.0,  999.0,  999.0,  999.0
2007/10/17 21:50,   -1.5,  999.0,   -0.4,   -0.3,   -0.4,   -0.6,    0.0,   -0.1,    0.0,    0.5,    0.1,    0.3,    0.3,    0.7,    1.0,    0.8,    1.0,    2.2,    3.0,    3.6,  999.0,    3.5,    2.5,    1.7,    0.1,    0.3,    0.6,    0.6,    0.6,    0.7,    0.6,    0.9,  999.0,    0.7,  999.0,  999.0,  999.0,    0.5,  999.0,  999.0,  999.0,  999.0,  999.0,    1.4,    1.5,  999.0,    0.6,    0.6,  999.0,  999.0,  999.0,  999.0,  999.0,  999.0,  999.0,  999.0,  999.0,  999.0,  999.0,  999.0,  999.0,  999.0,  999.0,  999.0,  999.0,  999.0,  999.0,  999.0,  999.0,  999.0,  999.0,  999.0,  999.0,  999.0,  999.0,  999.0,  999.0,  999.0,  999.0
2007/10/17 22:00,  999.0,  999.0,   -0.5,   -0.3,   -0.7,   -0.7,   -0.1,    0.6,  999.0,    0.4,    0.2,  999.0,    0.8,    0.7,    1.1,    1.3,    1.3,    2.0,    2.8,    3.6,    3.8,    3.9,    2.6,  999.0,   -0.4,    0.2,    0.4,    0.3,    0.2,    0.4,    0.4,    0.1,    0.5,    0.5,  999.0,    0.6,  999.0,  999.0,    0.3,  999.0,  999.0,  999.0,  999.0,    1.4,    1.0,  999.0,   -0.1,  999.0,  999.0,  999.0,  999.0,  999.0,  999.0,  999.0,  999.0,  999.0,  999.0,  999.0,  999.0,  999.0,  999.0,  999.0,  999.0,  999.0,  999.0,  999.0,  999.0,  999.0,  999.0,  999.0,  999.0,  999.0,  999.0,  999.0,  999.0,  999.0,  999.0,  999.0,  999.0
2007/10/17 22:10,  999.0,  999.0,  999.0,  999.0,   -1.2,   -0.8,   -0.3,   -0.2,   -0.1,   -0.3,   -0.4,    0.2,  999.0,    0.4,    0.9,    1.4,    1.6,    2.5,    3.1,    3.5,  999.0,    3.1,    3.3,    1.0,  999.0,    0.7,    0.6,    0.6,    0.2,    0.4,    1.2,    0.7,  999.0,    0.6,  999.0,  999.0,  999.0,    0.7,  999.0,    0.7,    1.0,  999.0,  999.0,    1.4,    1.4,  999.0,    0.2,  999.0,  999.0,  999.0,  999.0,  999.0,  999.0,  999.0,  999.0,  999.0,  999.0,  999.0,  999.0,  999.0,  999.0,  999.0,  999.0,  999.0,  999.0,  999.0,  999.0,  999.0,  999.0,  999.0,  999.0,  999.0,  999.0,  999.0,  999.0,  999.0,  999.0,  999.0,  999.0
2007/10/17 22:20,   -1.1,  999.0,   -0.4,   -0.4,   -1.6,   -1.2,   -0.2,   -0.3,    0.2,    0.0,    0.1,    0.3,    0.6,    0.5,    1.0,    1.5,    1.6,    2.7,  999.0,  999.0,    3.9,    2.8,  999.0,    2.1,    0.4,    0.3,    0.5,    0.3,    0.2,   -0.0,    0.6,  999.0,    1.1,    0.4,  999.0,  999.0,  999.0,  999.0,  999.0,  999.0,    1.7,    1.8,    2.1,    1.2,    1.4,    1.1,  999.0,  999.0,  999.0,  999.0,  999.0,  999.0,  999.0,  999.0,  999.0,  999.0,  999.0,  999.0,  999.0,  999.0,  999.0,  999.0,  999.0,  999.0,  999.0,  999.0,  999.0,  999.0,  999.0,  999.0,  999.0,  999.0,  999.0,  999.0,  999.0,  999.0,  999.0,  999.0,  999.0
2007/10/17 22:30,   -0.3,  999.0,   -1.0,   -1.5,   -2.2,   -1.8,   -0.2,   -0.9,   -0.7,   -0.4,   -0.4,   -0.1,    0.1,    0.1,    0.5,    1.3,    2.0,    3.0,    2.9,    3.3,    3.9,    3.1,    2.5,    2.0,    0.0,    0.4,    0.6,    0.3,    0.2,   -0.2,    0.4,    0.7,    1.7,    0.9,    0.9,  999.0,  999.0,  999.0,  999.0,  999.0,  999.0,    2.3,    2.0,    1.4,  999.0,  999.0,  999.0,  999.0,  999.0,  999.0,  999.0,  999.0,  999.0,  999.0,  999.0,  999.0,  999.0,  999.0,  999.0,  999.0,  999.0,  999.0,  999.0,  999.0,  999.0,  999.0,   -1.8,  999.0,  999.0,  999.0,  999.0,  999.0,  999.0,  999.0,  999.0,  999.0,  999.0,  999.0,  999.0
2007/10/17 22:40,   -0.5,  999.0,   -0.8,  999.0,   -1.5,   -0.6,   -0.0,  999.0,   -0.2,    0.1,   -0.0,    0.5,    1.0,    0.5,    0.4,    1.0,    1.7,    2.2,    2.9,    3.3,    3.6,    3.5,    2.6,    2.6,    0.4,    0.4,    0.6,    0.5,    0.1,    0.3,    0.6,    1.0,    0.9,    0.8,    0.2,  999.0,  999.0,  999.0,  999.0,  999.0,  999.0,  999.0,  999.0,  999.0,  999.0,  999.0,  999.0,  999.0,  999.0,  999.0,  999.0,  999.0,  999.0,  999.0,  999.0,  999.0,  999.0,  999.0,  999.0,  999.0,  999.0,  999.0,  999.0,  999.0,  999.0,   -1.9,   -2.0,  999.0,  999.0,  999.0,  999.0,  999.0,  999.0,  999.0,  999.0,  999.0,  999.0,  999.0,  999.0
2007/10/17 22:50,   -1.1,   -3.3,   -1.3,   -1.1,   -1.0,   -0.7,  999.0,   -0.3,    0.1,   -0.0,    0.3,    0.7,    0.9,    0.8,    0.3,  999.0,    1.0,    1.6,    2.1,    2.7,  999.0,  999.0,    2.6,    1.3,   -0.2,   -0.4,    0.3,    0.0,   -0.1,   -0.1,  999.0,  999.0,  999.0,    0.4,  999.0,  999.0,  999.0,  999.0,  999.0,  999.0,  999.0,    2.0,    1.2,  999.0,  999.0,  999.0,  999.0,  999.0,  999.0,  999.0,  999.0,  999.0,  999.0,  999.0,  999.0,  999.0,  999.0,  999.0,  999.0,  999.0,  999.0,  999.0,  999.0,  999.0,  999.0,  999.0,  999.0,   -2.3,  999.0,  999.0,  999.0,  999.0,  999.0,  999.0,  999.0,  999.0,  999.0,  999.0,  999.0
2007/10/17 23:00,   -0.4,  999.0,   -1.0,   -1.2,   -1.0,   -1.5,  999.0,   -0.7,   -0.3,    0.1,    0.6,    0.4,    0.2,    0.2,    0.1,    0.5,    1.2,    1.3,    1.8,    3.1,  999.0,    3.0,    3.0,    1.0,    0.2,    0.1,    0.6,    0.2,    0.0,  999.0,  999.0,  999.0,  999.0,  999.0,  999.0,  999.0,  999.0,  999.0,  999.0,  999.0,  999.0,    1.6,    1.4,  999.0,  999.0,  999.0,  999.0,  999.0,  999.0,  999.0,  999.0,  999.0,  999.0,  999.0,  999.0,  999.0,  999.0,  999.0,  999.0,  999.0,  999.0,  999.0,  999.0,  999.0,  999.0,  999.0,  999.0,  999.0,  999.0,  999.0,  999.0,  999.0,  999.0,  999.0,  999.0,  999.0,  999.0,  999.0,  999.0
2007/10/17 23:10,   -0.2,  999.0,   -0.4,   -0.6,   -1.0,   -1.0,   -0.6,   -0.9,   -0.1,    0.3,   -0.0,    0.2,    0.2,    0.1,    0.4,    0.7,    0.7,    1.8,    2.2,  999.0,  999.0,  999.0,  999.0,    1.6,    1.2,    0.8,    1.1,    0.5,    0.2,  999.0,  999.0,  999.0,  999.0,  999.0,    0.9,  999.0,  999.0,  999.0,  999.0,  999.0,    1.7,    1.0,  999.0,  999.0,  999.0,  999.0,  999.0,  999.0,  999.0,  999.0,  999.0,  999.0,  999.0,  999.0,  999.0,  999.0,  999.0,  999.0,  999.0,  999.0,  999.0,  999.0,  999.0,  999.0,  999.0,  999.0,  999.0,  999.0,  999.0,  999.0,  999.0,  999.0,  999.0,  999.0,  999.0,  999.0,  999.0,  999.0,  999.0
2007/10/17 23:20,   -0.2,  999.0,   -0.3,   -1.3,   -1.0,   -1.2,   -0.2,   -0.7,   -0.1,    0.2,    0.1,    0.1,    0.0,    0.1,    0.2,    0.5,    0.9,    1.7,    2.1,    2.8,    3.1,  999.0,  999.0,    1.0,    0.9,    0.7,    1.0,    0.4,    0.1,    0.9,  999.0,  999.0,  999.0,  999.0,  999.0,  999.0,    1.2,  999.0,  999.0,  999.0,    1.5,    1.0,  999.0,  999.0,  999.0,    0.5,  999.0,   -1.3,  999.0,  999.0,  999.0,  999.0,  999.0,  999.0,  999.0,  999.0,  999.0,  999.0,  999.0,  999.0,  999.0,  999.0,  999.0,  999.0,  999.0,  999.0,  999.0,  999.0,  999.0,  999.0,  999.0,  999.0,  999.0,  999.0,  999.0,  999.0,  999.0,  999.0,  999.0
2007/10/17 23:30,   -0.0,  999.0,  999.0,   -1.7,   -1.3,   -1.1,   -0.8,   -0.7,    0.1,    0.2,    0.4,    0.4,    0.0,    0.1,    0.2,    0.6,    0.4,    0.8,    1.0,    1.8,    2.2,  999.0,  999.0,    1.6,    0.5,    1.1,    1.1,    0.8,    0.4,  999.0,  999.0,    2.9,  999.0,    1.3,    1.9,  999.0,  999.0,  999.0,  999.0,  999.0,    1.6,  999.0,    0.8,  999.0,  999.0,  999.0,   -0.6,   -1.8,  999.0,  999.0,  999.0,  999.0,  999.0,  999.0,  999.0,  999.0,  999.0,  999.0,  999.0,  999.0,  999.0,  999.0,  999.0,  999.0,  999.0,  999.0,  999.0,  999.0,  999.0,  999.0,  999.0,  999.0,  999.0,  999.0,  999.0,  999.0,  999.0,  999.0,  999.0
2007/10/17 23:40,   -0.0,  999.0,   -2.3,   -1.4,   -0.9,   -0.9,   -0.5,   -1.1,   -0.7,   -0.2,    0.6,    0.2,   -0.1,   -0.1,    0.2,    0.4,    0.3,    0.5,    1.2,    1.9,    2.5,    2.7,  999.0,    2.2,    0.6,    0.6,    0.9,    0.1,    0.0,    0.7,  999.0,  999.0,  999.0,  999.0,    1.4,    1.2,    0.8,  999.0,    1.4,    1.5,    1.4,  999.0,  999.0,  999.0,  999.0,  999.0,  999.0,   -1.7,  999.0,  999.0,  999.0,  999.0,  999.0,  999.0,  999.0,  999.0,  999.0,  999.0,  999.0,  999.0,  999.0,  999.0,  999.0,  999.0,  999.0,  999.0,  999.0,  999.0,  999.0,  999.0,  999.0,  999.0,  999.0,  999.0,  999.0,  999.0,  999.0,  999.0,  999.0
2007/10/17 23:50,  999.0,   -3.6,   -2.9,   -1.9,   -1.9,   -1.8,   -0.5,   -0.5,   -1.1,   -0.8,    0.2,   -0.1,   -0.4,   -0.1,    0.4,    0.7,    0.7,    1.0,    1.5,    2.5,  999.0,  999.0,  999.0,    2.0,    1.4,    0.9,    1.0,    0.7,    0.2,  999.0,  999.0,  999.0,    2.1,  999.0,    1.2,    0.8,  999.0,  999.0,    0.9,    1.4,    1.3,    0.4,    0.6,  999.0,  999.0,  999.0,  999.0,  999.0,  999.0,  999.0,  999.0,  999.0,  999.0,  999.0,  999.0,  999.0,  999.0,  999.0,  999.0,  999.0,  999.0,  999.0,  999.0,  999.0,  999.0,  999.0,  999.0,  999.0,  999.0,  999.0,  999.0,  999.0,  999.0,  999.0,  999.0,  999.0,  999.0,  999.0,  999.0
